Wetterdaten: Montag, 27.08.2018
Datum Zeit Temp. Aussen Temp. o. S. +5cm Feuchte Auss Luftdruck Regen Sonnenschein Regendauer Solar Windben Empfang
27.08.2018 00:00 17,2 C 14,4 C 14,4 C 66 % 1008,9 hPa 0,0 l/m 0 min 2 min 0 W/m 6,8 km/h (2 Bft) 96,00 %
27.08.2018 00:02 17,1 C 14,4 C 15,0 C 66 % 1008,9 hPa 0,0 l/m 0 min 2 min 0 W/m 9,0 km/h (2 Bft) 100,00 %
27.08.2018 00:04 17,1 C 15,0 C 15,0 C 66 % 1008,9 hPa 0,0 l/m 0 min 2 min 0 W/m 6,8 km/h (2 Bft) 97,92 %
27.08.2018 00:07 16,9 C 15,6 C 15,0 C 66 % 1008,8 hPa 0,0 l/m 0 min 0 min 0 W/m 9,0 km/h (2 Bft) 100,00 %
27.08.2018 00:08 16,9 C 15,6 C 15,0 C 66 % 1008,8 hPa 0,0 l/m 0 min 0 min 0 W/m 6,8 km/h (2 Bft) 100,00 %
27.08.2018 00:10 16,9 C 15,6 C 15,0 C 66 % 1008,8 hPa 0,0 l/m 0 min 2 min 0 W/m 6,8 km/h (2 Bft) 100,00 %
27.08.2018 00:12 16,8 C 15,6 C 15,0 C 65 % 1008,7 hPa 0,0 l/m 0 min 2 min 0 W/m 11,3 km/h (2 Bft) 100,00 %
27.08.2018 00:14 16,8 C 15,6 C 15,0 C 65 % 1008,7 hPa 0,0 l/m 0 min 2 min 0 W/m 15,8 km/h (3 Bft) 97,67 %
27.08.2018 00:16 16,8 C 15,6 C 15,0 C 65 % 1008,7 hPa 0,0 l/m 0 min 0 min 0 W/m 9,0 km/h (2 Bft) 100,00 %
27.08.2018 00:18 16,7 C 15,6 C 15,0 C 66 % 1008,8 hPa 0,0 l/m 0 min 2 min 0 W/m 9,0 km/h (2 Bft) 97,87 %
27.08.2018 00:20 16,7 C 14,4 C 15,0 C 65 % 1008,7 hPa 0,0 l/m 0 min 2 min 0 W/m 11,3 km/h (2 Bft) 100,00 %
27.08.2018 00:22 16,7 C 14,4 C 14,4 C 66 % 1008,7 hPa 0,0 l/m 0 min 2 min 0 W/m 9,0 km/h (2 Bft) 100,00 %
27.08.2018 00:24 16,7 C 13,9 C 14,4 C 67 % 1008,8 hPa 0,0 l/m 0 min 2 min 0 W/m 9,0 km/h (2 Bft) 100,00 %
27.08.2018 00:26 16,6 C 13,9 C 14,4 C 67 % 1008,7 hPa 0,0 l/m 0 min 2 min 0 W/m 11,3 km/h (2 Bft) 97,22 %
27.08.2018 00:28 16,6 C 13,3 C 13,9 C 68 % 1008,8 hPa 0,0 l/m 0 min 2 min 0 W/m 9,0 km/h (2 Bft) 95,83 %
27.08.2018 00:30 16,6 C 12,8 C 12,8 C 69 % 1008,7 hPa 0,0 l/m 0 min 2 min 0 W/m 6,8 km/h (2 Bft) 97,87 %
27.08.2018 00:32 16,6 C 12,8 C 12,8 C 70 % 1008,7 hPa 0,0 l/m 0 min 2 min 0 W/m 9,0 km/h (2 Bft) 95,74 %
27.08.2018 00:34 16,5 C 12,2 C 12,2 C 70 % 1008,6 hPa 0,2 l/m 0 min 2 min 0 W/m 11,3 km/h (2 Bft) 97,92 %
27.08.2018 00:36 16,4 C 12,2 C 12,2 C 71 % 1008,6 hPa 0,0 l/m 0 min 2 min 0 W/m 9,0 km/h (2 Bft) 97,87 %
27.08.2018 00:38 16,4 C 12,2 C 12,2 C 71 % 1008,5 hPa 0,0 l/m 0 min 2 min 0 W/m 11,3 km/h (2 Bft) 100,00 %
27.08.2018 00:40 16,3 C 12,2 C 12,2 C 71 % 1008,5 hPa 0,0 l/m 0 min 2 min 0 W/m 6,8 km/h (2 Bft) 97,87 %
27.08.2018 00:42 16,3 C 12,2 C 12,2 C 72 % 1008,5 hPa 0,0 l/m 0 min 2 min 0 W/m 6,8 km/h (2 Bft) 97,83 %
27.08.2018 00:44 16,2 C 12,2 C 12,2 C 72 % 1008,4 hPa 0,0 l/m 0 min 2 min 0 W/m 15,8 km/h (3 Bft) 95,74 %
27.08.2018 00:46 16,1 C 12,2 C 12,2 C 72 % 1008,5 hPa 0,0 l/m 0 min 2 min 0 W/m 6,8 km/h (2 Bft) 100,00 %
27.08.2018 00:48 16,1 C 12,2 C 12,2 C 72 % 1008,4 hPa 0,0 l/m 0 min 2 min 0 W/m 11,3 km/h (2 Bft) 97,92 %
27.08.2018 00:50 16,0 C 12,2 C 12,2 C 73 % 1008,4 hPa 0,0 l/m 0 min 2 min 0 W/m 9,0 km/h (2 Bft) 96,72 %
27.08.2018 00:52 15,9 C 11,7 C 12,2 C 73 % 1008,3 hPa 0,0 l/m 0 min 2 min 0 W/m 15,8 km/h (3 Bft) 97,83 %
27.08.2018 00:54 15,8 C 11,7 C 12,2 C 74 % 1008,3 hPa 0,0 l/m 0 min 2 min 0 W/m 9,0 km/h (2 Bft) 97,30 %
27.08.2018 00:56 15,8 C 11,7 C 12,2 C 74 % 1008,3 hPa 0,0 l/m 0 min 2 min 0 W/m 11,3 km/h (2 Bft) 97,87 %
27.08.2018 00:58 15,7 C 11,7 C 12,2 C 74 % 1008,2 hPa 0,0 l/m 0 min 2 min 0 W/m 6,8 km/h (2 Bft) 97,92 %
27.08.2018 01:00 15,6 C 11,7 C 12,2 C 74 % 1008,1 hPa 0,0 l/m 0 min 2 min 0 W/m 11,3 km/h (2 Bft) 97,87 %
27.08.2018 01:02 15,6 C 11,7 C 12,2 C 75 % 1008,1 hPa 0,0 l/m 0 min 0 min 0 W/m 9,0 km/h (2 Bft) 97,73 %
27.08.2018 01:04 15,5 C 11,7 C 12,2 C 75 % 1008,1 hPa 0,0 l/m 0 min 0 min 0 W/m 13,5 km/h (3 Bft) 98,00 %
27.08.2018 01:06 15,4 C 12,2 C 12,2 C 75 % 1008,1 hPa 0,0 l/m 0 min 0 min 0 W/m 18,0 km/h (3 Bft) 97,83 %
27.08.2018 01:08 15,4 C 12,2 C 12,8 C 75 % 1008,1 hPa 0,0 l/m 0 min 0 min 0 W/m 15,8 km/h (3 Bft) 95,74 %
27.08.2018 01:10 15,4 C 12,2 C 12,8 C 75 % 1008,0 hPa 0,0 l/m 0 min 2 min 0 W/m 9,0 km/h (2 Bft) 97,87 %
27.08.2018 01:12 15,3 C 12,2 C 12,8 C 75 % 1007,9 hPa 0,0 l/m 0 min 2 min 0 W/m 13,5 km/h (3 Bft) 97,87 %
27.08.2018 01:14 15,3 C 12,2 C 12,8 C 75 % 1007,9 hPa 0,0 l/m 0 min 2 min 0 W/m 15,8 km/h (3 Bft) 97,87 %
27.08.2018 01:16 15,3 C 12,2 C 12,8 C 75 % 1007,9 hPa 0,0 l/m 0 min 2 min 0 W/m 15,8 km/h (3 Bft) 97,56 %
27.08.2018 01:18 15,3 C 12,2 C 12,8 C 76 % 1008,0 hPa 0,0 l/m 0 min 2 min 0 W/m 6,8 km/h (2 Bft) 97,87 %
27.08.2018 01:20 15,2 C 12,2 C 12,8 C 76 % 1007,9 hPa 0,0 l/m 0 min 0 min 0 W/m 11,3 km/h (2 Bft) 98,33 %
27.08.2018 01:22 15,2 C 12,2 C 12,8 C 76 % 1007,9 hPa 0,0 l/m 0 min 0 min 0 W/m 18,0 km/h (3 Bft) 97,87 %
27.08.2018 01:24 15,2 C 12,2 C 12,8 C 76 % 1008,0 hPa 0,0 l/m 0 min 0 min 0 W/m 6,8 km/h (2 Bft) 97,22 %
27.08.2018 01:26 15,2 C 12,2 C 12,8 C 77 % 1008,1 hPa 0,0 l/m 0 min 0 min 0 W/m 6,8 km/h (2 Bft) 97,92 %
27.08.2018 01:28 15,2 C 12,2 C 12,8 C 76 % 1008,1 hPa 0,0 l/m 0 min 2 min 0 W/m 9,0 km/h (2 Bft) 97,87 %
27.08.2018 01:30 15,2 C 12,2 C 13,3 C 77 % 1008,1 hPa 0,0 l/m 0 min 0 min 0 W/m 6,8 km/h (2 Bft) 97,87 %
27.08.2018 01:32 15,2 C 12,2 C 13,3 C 77 % 1008,2 hPa 0,0 l/m 0 min 2 min 0 W/m 6,8 km/h (2 Bft) 95,74 %
27.08.2018 01:34 15,1 C 12,2 C 13,3 C 77 % 1008,1 hPa 0,0 l/m 0 min 2 min 0 W/m 9,0 km/h (2 Bft) 91,49 %
27.08.2018 01:36 15,1 C 12,2 C 13,3 C 77 % 1008,0 hPa 0,0 l/m 0 min 2 min 0 W/m 11,3 km/h (2 Bft) 95,83 %
27.08.2018 01:38 15,1 C 12,2 C 13,3 C 77 % 1008,0 hPa 0,0 l/m 0 min 2 min 0 W/m 6,8 km/h (2 Bft) 95,74 %
27.08.2018 01:40 15,1 C 12,2 C 13,3 C 77 % 1008,1 hPa 0,0 l/m 0 min 2 min 0 W/m 11,3 km/h (2 Bft) 97,83 %
27.08.2018 01:42 15,1 C 12,2 C 13,3 C 77 % 1008,0 hPa 0,0 l/m 0 min 2 min 0 W/m 13,5 km/h (3 Bft) 97,87 %
27.08.2018 01:44 15,1 C 12,2 C 13,3 C 77 % 1008,1 hPa 0,0 l/m 0 min 2 min 0 W/m 9,0 km/h (2 Bft) 100,00 %
27.08.2018 01:46 15,1 C 12,2 C 13,3 C 77 % 1008,1 hPa 0,0 l/m 0 min 0 min 0 W/m 11,3 km/h (2 Bft) 91,49 %
27.08.2018 01:48 15,1 C 12,8 C 13,9 C 77 % 1008,1 hPa 0,0 l/m 0 min 0 min 0 W/m 9,0 km/h (2 Bft) 97,87 %
27.08.2018 01:50 15,1 C 12,8 C 13,9 C 77 % 1008,2 hPa 0,0 l/m 0 min 0 min 0 W/m 15,8 km/h (3 Bft) 93,62 %
27.08.2018 01:52 15,1 C 12,8 C 13,9 C 77 % 1008,2 hPa 0,0 l/m 0 min 0 min 0 W/m 6,8 km/h (2 Bft) 97,83 %
27.08.2018 01:54 15,1 C 12,8 C 13,9 C 77 % 1008,1 hPa 0,0 l/m 0 min 0 min 0 W/m 6,8 km/h (2 Bft) 95,74 %
27.08.2018 01:56 15,1 C 12,8 C 13,9 C 77 % 1008,1 hPa 0,0 l/m 0 min 0 min 0 W/m 4,5 km/h (1 Bft) 97,87 %
27.08.2018 01:58 15,0 C 12,8 C 13,9 C 77 % 1008,2 hPa 0,0 l/m 0 min 0 min 0 W/m 9,0 km/h (2 Bft) 97,87 %
27.08.2018 02:00 15,0 C 12,8 C 13,9 C 77 % 1008,1 hPa 0,0 l/m 0 min 0 min 0 W/m 4,5 km/h (1 Bft) 95,35 %
27.08.2018 02:02 15,0 C 12,8 C 13,9 C 77 % 1008,2 hPa 0,0 l/m 0 min 0 min 0 W/m 9,0 km/h (2 Bft) 98,00 %
27.08.2018 02:04 15,0 C 12,8 C 13,9 C 78 % 1008,1 hPa 0,0 l/m 0 min 0 min 0 W/m 4,5 km/h (1 Bft) 97,67 %
27.08.2018 02:06 15,0 C 12,8 C 13,9 C 78 % 1008,1 hPa 0,0 l/m 0 min 0 min 0 W/m 9,0 km/h (2 Bft) 95,74 %
27.08.2018 02:08 15,1 C 12,8 C 13,9 C 78 % 1008,2 hPa 0,0 l/m 0 min 0 min 0 W/m 6,8 km/h (2 Bft) 97,87 %
27.08.2018 02:10 15,0 C 12,8 C 13,9 C 78 % 1008,1 hPa 0,0 l/m 0 min 2 min 0 W/m 4,5 km/h (1 Bft) 95,74 %
27.08.2018 02:12 15,0 C 12,8 C 13,9 C 78 % 1008,1 hPa 0,0 l/m 0 min 2 min 0 W/m 6,8 km/h (2 Bft) 97,92 %
27.08.2018 02:14 15,1 C 12,8 C 13,9 C 78 % 1008,1 hPa 0,0 l/m 0 min 2 min 0 W/m 6,8 km/h (2 Bft) 95,92 %
27.08.2018 02:16 15,1 C 12,8 C 13,9 C 78 % 1008,0 hPa 0,0 l/m 0 min 2 min 0 W/m 15,8 km/h (3 Bft) 95,65 %
27.08.2018 02:18 15,1 C 12,8 C 13,9 C 78 % 1008,0 hPa 0,0 l/m 0 min 2 min 0 W/m 9,0 km/h (2 Bft) 95,83 %
27.08.2018 02:20 15,1 C 12,8 C 13,9 C 78 % 1008,0 hPa 0,0 l/m 0 min 2 min 0 W/m 11,3 km/h (2 Bft) 95,74 %
27.08.2018 02:22 15,1 C 12,8 C 13,9 C 78 % 1008,0 hPa 0,0 l/m 0 min 2 min 0 W/m 11,3 km/h (2 Bft) 95,74 %
27.08.2018 02:24 15,1 C 12,8 C 13,9 C 78 % 1008,0 hPa 0,0 l/m 0 min 2 min 0 W/m 6,8 km/h (2 Bft) 95,74 %
27.08.2018 02:26 15,1 C 12,8 C 13,9 C 78 % 1007,9 hPa 0,0 l/m 0 min 0 min 0 W/m 9,0 km/h (2 Bft) 93,62 %
27.08.2018 02:28 15,1 C 12,8 C 13,9 C 78 % 1007,9 hPa 0,0 l/m 0 min 2 min 0 W/m 11,3 km/h (2 Bft) 97,83 %
27.08.2018 02:30 15,1 C 13,3 C 13,9 C 78 % 1007,9 hPa 0,0 l/m 0 min 2 min 0 W/m 11,3 km/h (2 Bft) 97,87 %
27.08.2018 02:32 15,1 C 13,3 C 13,9 C 78 % 1007,8 hPa 0,0 l/m 0 min 0 min 0 W/m 11,3 km/h (2 Bft) 97,56 %
27.08.2018 02:34 15,1 C 13,3 C 13,9 C 79 % 1007,9 hPa 0,0 l/m 0 min 2 min 0 W/m 11,3 km/h (2 Bft) 97,96 %
27.08.2018 02:36 15,1 C 13,3 C 13,9 C 79 % 1007,9 hPa 0,0 l/m 0 min 2 min 0 W/m 9,0 km/h (2 Bft) 97,87 %
27.08.2018 02:38 15,1 C 12,8 C 13,3 C 80 % 1007,8 hPa 0,0 l/m 0 min 2 min 0 W/m 6,8 km/h (2 Bft) 97,96 %
27.08.2018 02:40 15,1 C 12,2 C 12,8 C 80 % 1007,7 hPa 0,0 l/m 0 min 2 min 0 W/m 13,5 km/h (3 Bft) 97,83 %
27.08.2018 02:42 15,1 C 12,2 C 12,8 C 80 % 1007,8 hPa 0,0 l/m 0 min 2 min 0 W/m 9,0 km/h (2 Bft) 95,92 %
27.08.2018 02:44 15,1 C 12,2 C 12,8 C 81 % 1007,7 hPa 0,0 l/m 0 min 2 min 0 W/m 9,0 km/h (2 Bft) 97,87 %
27.08.2018 02:46 15,0 C 12,2 C 12,8 C 81 % 1007,7 hPa 0,0 l/m 0 min 2 min 0 W/m 9,0 km/h (2 Bft) 97,87 %
27.08.2018 02:48 15,0 C 12,2 C 12,8 C 81 % 1007,7 hPa 0,0 l/m 0 min 0 min 0 W/m 6,8 km/h (2 Bft) 95,74 %
27.08.2018 02:50 14,9 C 12,2 C 12,8 C 82 % 1007,6 hPa 0,0 l/m 0 min 2 min 0 W/m 6,8 km/h (2 Bft) 98,28 %
27.08.2018 02:52 14,9 C 12,2 C 12,8 C 82 % 1007,6 hPa 0,0 l/m 0 min 0 min 0 W/m 9,0 km/h (2 Bft) 97,14 %
27.08.2018 02:54 14,9 C 12,2 C 12,8 C 82 % 1007,6 hPa 0,0 l/m 0 min 0 min 0 W/m 6,8 km/h (2 Bft) 97,62 %
27.08.2018 02:56 14,8 C 12,2 C 13,3 C 82 % 1007,5 hPa 0,0 l/m 0 min 0 min 0 W/m 11,3 km/h (2 Bft) 97,96 %
27.08.2018 02:58 14,8 C 12,8 C 13,3 C 82 % 1007,5 hPa 0,0 l/m 0 min 0 min 0 W/m 9,0 km/h (2 Bft) 97,87 %
27.08.2018 03:00 14,7 C 12,8 C 13,3 C 82 % 1007,4 hPa 0,0 l/m 0 min 0 min 0 W/m 6,8 km/h (2 Bft) 97,87 %
27.08.2018 03:02 14,7 C 12,8 C 13,3 C 82 % 1007,5 hPa 0,0 l/m 0 min 0 min 0 W/m 9,0 km/h (2 Bft) 97,83 %
27.08.2018 03:04 14,7 C 12,8 C 13,3 C 82 % 1007,4 hPa 0,0 l/m 0 min 0 min 0 W/m 15,8 km/h (3 Bft) 97,83 %
27.08.2018 03:06 14,6 C 13,3 C 13,3 C 82 % 1007,4 hPa 0,0 l/m 0 min 0 min 0 W/m 13,5 km/h (3 Bft) 100,00 %
27.08.2018 03:08 14,6 C 13,3 C 13,3 C 83 % 1007,2 hPa 0,0 l/m 0 min 0 min 0 W/m 9,0 km/h (2 Bft) 100,00 %
27.08.2018 03:10 14,6 C 13,3 C 13,3 C 83 % 1007,2 hPa 0,0 l/m 0 min 0 min 0 W/m 9,0 km/h (2 Bft) 100,00 %
27.08.2018 03:12 14,5 C 13,3 C 13,3 C 83 % 1007,2 hPa 0,0 l/m 0 min 0 min 0 W/m 9,0 km/h (2 Bft) 100,00 %
27.08.2018 03:14 14,5 C 12,8 C 13,3 C 83 % 1007,1 hPa 0,0 l/m 0 min 2 min 0 W/m 9,0 km/h (2 Bft) 97,92 %
27.08.2018 03:16 14,4 C 12,8 C 13,3 C 83 % 1007,1 hPa 0,0 l/m 0 min 2 min 0 W/m 13,5 km/h (3 Bft) 100,00 %
27.08.2018 03:18 14,4 C 12,8 C 12,8 C 83 % 1007,1 hPa 0,2 l/m 0 min 2 min 0 W/m 13,5 km/h (3 Bft) 100,00 %
27.08.2018 03:20 14,4 C 12,2 C 12,8 C 84 % 1007,0 hPa 0,0 l/m 0 min 2 min 0 W/m 11,3 km/h (2 Bft) 100,00 %
27.08.2018 03:22 14,4 C 12,8 C 12,8 C 84 % 1007,1 hPa 0,0 l/m 0 min 2 min 0 W/m 11,3 km/h (2 Bft) 97,87 %
27.08.2018 03:24 14,3 C 12,2 C 12,8 C 84 % 1007,0 hPa 0,0 l/m 0 min 2 min 0 W/m 18,0 km/h (3 Bft) 100,00 %
27.08.2018 03:26 14,3 C 12,2 C 12,8 C 84 % 1007,1 hPa 0,0 l/m 0 min 2 min 0 W/m 11,3 km/h (2 Bft) 100,00 %
27.08.2018 03:28 14,3 C 12,8 C 12,8 C 84 % 1007,1 hPa 0,0 l/m 0 min 0 min 0 W/m 15,8 km/h (3 Bft) 100,00 %
27.08.2018 03:30 14,2 C 12,8 C 12,8 C 85 % 1007,0 hPa 0,0 l/m 0 min 2 min 0 W/m 11,3 km/h (2 Bft) 100,00 %
27.08.2018 03:32 14,2 C 12,8 C 12,8 C 85 % 1007,0 hPa 0,0 l/m 0 min 0 min 0 W/m 15,8 km/h (3 Bft) 100,00 %
27.08.2018 03:34 14,2 C 12,8 C 12,8 C 85 % 1007,0 hPa 0,0 l/m 0 min 0 min 0 W/m 18,0 km/h (3 Bft) 100,00 %
27.08.2018 03:36 14,2 C 12,8 C 12,8 C 85 % 1007,0 hPa 0,0 l/m 0 min 2 min 0 W/m 13,5 km/h (3 Bft) 100,00 %
27.08.2018 03:38 14,2 C 12,8 C 13,3 C 86 % 1007,0 hPa 0,0 l/m 0 min 0 min 0 W/m 11,3 km/h (2 Bft) 100,00 %
27.08.2018 03:40 14,2 C 12,8 C 13,3 C 86 % 1007,0 hPa 0,0 l/m 0 min 0 min 0 W/m 11,3 km/h (2 Bft) 100,00 %
27.08.2018 03:42 14,2 C 12,2 C 12,8 C 86 % 1007,0 hPa 0,0 l/m 0 min 2 min 0 W/m 15,8 km/h (3 Bft) 97,92 %
27.08.2018 03:44 14,2 C 12,2 C 12,8 C 86 % 1007,1 hPa 0,0 l/m 0 min 2 min 0 W/m 9,0 km/h (2 Bft) 100,00 %
27.08.2018 03:46 14,2 C 12,2 C 12,2 C 86 % 1007,0 hPa 0,0 l/m 0 min 2 min 0 W/m 11,3 km/h (2 Bft) 100,00 %
27.08.2018 03:48 14,2 C 12,2 C 12,2 C 87 % 1007,0 hPa 0,0 l/m 0 min 2 min 0 W/m 11,3 km/h (2 Bft) 100,00 %
27.08.2018 03:50 14,2 C 11,7 C 12,2 C 87 % 1007,0 hPa 0,0 l/m 0 min 2 min 0 W/m 9,0 km/h (2 Bft) 100,00 %
27.08.2018 03:52 14,2 C 11,7 C 12,2 C 87 % 1006,9 hPa 0,2 l/m 0 min 2 min 0 W/m 6,8 km/h (2 Bft) 100,00 %
27.08.2018 03:54 14,2 C 11,7 C 12,2 C 88 % 1006,9 hPa 0,0 l/m 0 min 2 min 0 W/m 6,8 km/h (2 Bft) 100,00 %
27.08.2018 03:56 14,1 C 11,7 C 12,2 C 88 % 1006,9 hPa 0,0 l/m 0 min 2 min 0 W/m 6,8 km/h (2 Bft) 100,00 %
27.08.2018 03:58 14,1 C 11,7 C 12,2 C 88 % 1006,9 hPa 0,0 l/m 0 min 2 min 0 W/m 9,0 km/h (2 Bft) 100,00 %
27.08.2018 04:00 14,1 C 11,7 C 12,2 C 89 % 1006,9 hPa 0,0 l/m 0 min 2 min 0 W/m 11,3 km/h (2 Bft) 100,00 %
27.08.2018 04:05 13,9 C 11,7 C 12,2 C 89 % 1006,8 hPa 0,2 l/m 0 min 5 min 0 W/m 6,8 km/h (2 Bft) 96,49 %
27.08.2018 04:06 13,9 C 11,7 C 12,2 C 89 % 1006,8 hPa 0,0 l/m 0 min 1 min 0 W/m 4,5 km/h (1 Bft) 96,00 %
27.08.2018 04:08 13,9 C 11,7 C 12,2 C 89 % 1006,9 hPa 0,0 l/m 0 min 2 min 0 W/m 11,3 km/h (2 Bft) 97,87 %
27.08.2018 04:10 13,9 C 11,7 C 12,2 C 89 % 1006,7 hPa 0,0 l/m 0 min 2 min 0 W/m 11,3 km/h (2 Bft) 100,00 %
27.08.2018 04:12 13,8 C 11,7 C 12,2 C 90 % 1006,8 hPa 0,0 l/m 0 min 2 min 0 W/m 11,3 km/h (2 Bft) 95,65 %
27.08.2018 04:14 13,8 C 11,7 C 12,2 C 90 % 1006,7 hPa 0,0 l/m 0 min 2 min 0 W/m 11,3 km/h (2 Bft) 97,87 %
27.08.2018 04:20 13,7 C 11,7 C 12,2 C 90 % 1006,7 hPa 0,0 l/m 0 min 5 min 0 W/m 9,0 km/h (2 Bft) 95,24 %
27.08.2018 04:22 13,7 C 11,7 C 11,7 C 90 % 1006,7 hPa 0,0 l/m 0 min 0 min 0 W/m 11,3 km/h (2 Bft) 93,48 %
27.08.2018 04:24 13,7 C 11,7 C 11,7 C 91 % 1006,7 hPa 0,0 l/m 0 min 0 min 0 W/m 9,0 km/h (2 Bft) 97,87 %
27.08.2018 04:26 13,6 C 11,7 C 11,7 C 91 % 1006,6 hPa 0,0 l/m 0 min 0 min 0 W/m 6,8 km/h (2 Bft) 97,87 %
27.08.2018 04:28 13,6 C 11,7 C 11,7 C 91 % 1006,6 hPa 0,0 l/m 0 min 0 min 0 W/m 9,0 km/h (2 Bft) 97,87 %
27.08.2018 04:30 13,6 C 11,7 C 12,2 C 91 % 1006,6 hPa 0,0 l/m 0 min 0 min 0 W/m 6,8 km/h (2 Bft) 97,87 %
27.08.2018 04:32 13,6 C 11,7 C 11,7 C 91 % 1006,6 hPa 0,0 l/m 0 min 0 min 0 W/m 6,8 km/h (2 Bft) 97,87 %
27.08.2018 04:34 13,6 C 12,2 C 11,7 C 91 % 1006,6 hPa 0,0 l/m 0 min 0 min 0 W/m 6,8 km/h (2 Bft) 95,65 %
27.08.2018 04:36 13,5 C 11,7 C 11,7 C 91 % 1006,6 hPa 0,0 l/m 0 min 0 min 0 W/m 13,5 km/h (3 Bft) 95,83 %
27.08.2018 04:38 13,5 C 11,7 C 11,7 C 92 % 1006,6 hPa 0,0 l/m 0 min 0 min 0 W/m 13,5 km/h (3 Bft) 97,87 %
27.08.2018 04:40 13,5 C 12,2 C 11,7 C 92 % 1006,6 hPa 0,0 l/m 0 min 0 min 0 W/m 9,0 km/h (2 Bft) 97,87 %
27.08.2018 04:42 13,4 C 12,2 C 11,7 C 92 % 1006,6 hPa 0,0 l/m 0 min 2 min 0 W/m 11,3 km/h (2 Bft) 95,74 %
27.08.2018 04:44 13,4 C 12,2 C 11,7 C 92 % 1006,6 hPa 0,0 l/m 0 min 2 min 0 W/m 9,0 km/h (2 Bft) 97,87 %
27.08.2018 04:46 13,4 C 12,2 C 12,2 C 92 % 1006,6 hPa 0,0 l/m 0 min 2 min 0 W/m 11,3 km/h (2 Bft) 97,87 %
27.08.2018 04:48 13,4 C 12,2 C 11,7 C 92 % 1006,7 hPa 0,0 l/m 0 min 2 min 0 W/m 9,0 km/h (2 Bft) 97,83 %
27.08.2018 04:50 13,4 C 12,2 C 11,7 C 92 % 1006,6 hPa 0,2 l/m 0 min 2 min 0 W/m 9,0 km/h (2 Bft) 95,74 %
27.08.2018 04:52 13,4 C 12,2 C 11,7 C 93 % 1006,6 hPa 0,0 l/m 0 min 2 min 0 W/m 13,5 km/h (3 Bft) 95,74 %
27.08.2018 04:54 13,4 C 12,2 C 11,7 C 93 % 1006,6 hPa 0,2 l/m 0 min 2 min 0 W/m 13,5 km/h (3 Bft) 93,62 %
27.08.2018 04:56 13,4 C 12,2 C 11,7 C 93 % 1006,5 hPa 0,2 l/m 0 min 2 min 0 W/m 9,0 km/h (2 Bft) 95,74 %
27.08.2018 04:58 13,4 C 11,7 C 11,7 C 93 % 1006,5 hPa 0,2 l/m 0 min 2 min 0 W/m 11,3 km/h (2 Bft) 95,65 %
27.08.2018 05:00 13,3 C 11,7 C 11,7 C 93 % 1006,5 hPa 0,0 l/m 0 min 2 min 0 W/m 9,0 km/h (2 Bft) 97,87 %
27.08.2018 05:02 13,3 C 11,7 C 11,7 C 93 % 1006,5 hPa 0,0 l/m 0 min 2 min 0 W/m 6,8 km/h (2 Bft) 95,74 %
27.08.2018 05:04 13,3 C 11,7 C 12,2 C 93 % 1006,5 hPa 0,0 l/m 0 min 2 min 0 W/m 9,0 km/h (2 Bft) 97,87 %
27.08.2018 05:06 13,3 C 11,7 C 11,7 C 93 % 1006,5 hPa 0,0 l/m 0 min 0 min 0 W/m 9,0 km/h (2 Bft) 97,87 %
27.08.2018 05:08 13,3 C 11,7 C 11,7 C 93 % 1006,4 hPa 0,0 l/m 0 min 0 min 0 W/m 11,3 km/h (2 Bft) 97,87 %
27.08.2018 05:10 13,2 C 11,7 C 11,7 C 93 % 1006,4 hPa 0,0 l/m 0 min 0 min 0 W/m 9,0 km/h (2 Bft) 97,83 %
27.08.2018 05:12 13,2 C 11,7 C 11,7 C 93 % 1006,4 hPa 0,0 l/m 0 min 0 min 0 W/m 6,8 km/h (2 Bft) 97,87 %
27.08.2018 05:14 13,2 C 11,7 C 11,7 C 94 % 1006,3 hPa 0,0 l/m 0 min 2 min 0 W/m 6,8 km/h (2 Bft) 93,62 %
27.08.2018 05:16 13,2 C 11,7 C 11,7 C 94 % 1006,4 hPa 0,2 l/m 0 min 2 min 0 W/m 9,0 km/h (2 Bft) 93,62 %
27.08.2018 05:18 13,2 C 11,7 C 11,7 C 94 % 1006,3 hPa 0,0 l/m 0 min 2 min 0 W/m 9,0 km/h (2 Bft) 95,74 %
27.08.2018 05:20 13,2 C 11,7 C 11,7 C 94 % 1006,4 hPa 0,0 l/m 0 min 2 min 0 W/m 9,0 km/h (2 Bft) 95,74 %
27.08.2018 05:22 13,2 C 12,2 C 12,2 C 94 % 1006,3 hPa 0,0 l/m 0 min 2 min 0 W/m 6,8 km/h (2 Bft) 93,48 %
27.08.2018 05:24 13,2 C 12,2 C 11,7 C 94 % 1006,3 hPa 0,4 l/m 0 min 2 min 0 W/m 9,0 km/h (2 Bft) 95,74 %
27.08.2018 05:26 13,2 C 12,2 C 11,7 C 94 % 1006,2 hPa 0,0 l/m 0 min 2 min 0 W/m 11,3 km/h (2 Bft) 95,74 %
27.08.2018 05:28 13,2 C 12,2 C 11,7 C 94 % 1006,2 hPa 0,0 l/m 0 min 2 min 0 W/m 13,5 km/h (3 Bft) 97,87 %
27.08.2018 05:30 13,2 C 12,2 C 12,2 C 94 % 1006,2 hPa 0,0 l/m 0 min 2 min 0 W/m 9,0 km/h (2 Bft) 95,74 %
27.08.2018 05:32 13,2 C 12,2 C 12,2 C 94 % 1006,2 hPa 0,0 l/m 0 min 0 min 0 W/m 6,8 km/h (2 Bft) 95,65 %
27.08.2018 05:34 13,2 C 12,2 C 11,7 C 94 % 1006,2 hPa 0,0 l/m 0 min 0 min 0 W/m 9,0 km/h (2 Bft) 93,62 %
27.08.2018 05:36 13,2 C 12,2 C 12,2 C 94 % 1006,2 hPa 0,0 l/m 0 min 0 min 0 W/m 6,8 km/h (2 Bft) 95,74 %
27.08.2018 05:38 13,2 C 12,2 C 12,2 C 94 % 1006,2 hPa 0,0 l/m 0 min 0 min 0 W/m 9,0 km/h (2 Bft) 96,15 %
27.08.2018 05:40 13,1 C 12,2 C 12,2 C 94 % 1006,2 hPa 0,0 l/m 0 min 0 min 0 W/m 4,5 km/h (1 Bft) 97,92 %
27.08.2018 05:42 13,1 C 12,2 C 12,2 C 94 % 1006,1 hPa 0,0 l/m 0 min 0 min 0 W/m 11,3 km/h (2 Bft) 95,92 %
27.08.2018 05:44 13,1 C 12,2 C 12,2 C 95 % 1006,2 hPa 0,0 l/m 0 min 0 min 0 W/m 9,0 km/h (2 Bft) 93,62 %
27.08.2018 05:46 13,1 C 12,2 C 12,2 C 95 % 1006,2 hPa 0,0 l/m 0 min 0 min 0 W/m 9,0 km/h (2 Bft) 95,74 %
27.08.2018 05:48 13,2 C 12,2 C 12,2 C 95 % 1006,2 hPa 0,0 l/m 0 min 2 min 0 W/m 4,5 km/h (1 Bft) 95,74 %
27.08.2018 05:50 13,2 C 12,2 C 12,2 C 95 % 1006,1 hPa 0,2 l/m 0 min 2 min 0 W/m 9,0 km/h (2 Bft) 93,62 %
27.08.2018 05:52 13,2 C 12,2 C 12,2 C 95 % 1006,1 hPa 0,0 l/m 0 min 0 min 0 W/m 9,0 km/h (2 Bft) 95,74 %
27.08.2018 05:54 13,2 C 12,2 C 12,2 C 95 % 1006,1 hPa 0,0 l/m 0 min 0 min 0 W/m 15,8 km/h (3 Bft) 95,74 %
27.08.2018 05:56 13,2 C 12,2 C 12,2 C 95 % 1006,1 hPa 0,0 l/m 0 min 0 min 0 W/m 6,8 km/h (2 Bft) 95,12 %
27.08.2018 05:58 13,2 C 12,2 C 12,2 C 95 % 1006,1 hPa 0,0 l/m 0 min 0 min 0 W/m 6,8 km/h (2 Bft) 97,87 %
27.08.2018 06:00 13,2 C 12,2 C 12,2 C 95 % 1006,2 hPa 0,0 l/m 0 min 0 min 0 W/m 4,5 km/h (1 Bft) 97,96 %
27.08.2018 06:02 13,2 C 12,2 C 12,2 C 95 % 1006,2 hPa 0,0 l/m 0 min 0 min 0 W/m 4,5 km/h (1 Bft) 97,87 %
27.08.2018 06:04 13,2 C 12,2 C 12,2 C 95 % 1006,2 hPa 0,0 l/m 0 min 0 min 0 W/m 9,0 km/h (2 Bft) 98,00 %
27.08.2018 06:06 13,2 C 12,2 C 12,2 C 95 % 1006,1 hPa 0,0 l/m 0 min 0 min 0 W/m 9,0 km/h (2 Bft) 100,00 %
27.08.2018 06:08 13,3 C 12,2 C 12,2 C 95 % 1006,2 hPa 0,0 l/m 0 min 0 min 0 W/m 4,5 km/h (1 Bft) 100,00 %
27.08.2018 06:10 13,3 C 12,2 C 12,2 C 95 % 1006,2 hPa 0,0 l/m 0 min 0 min 0 W/m 2,3 km/h (1 Bft) 95,74 %
27.08.2018 06:12 13,3 C 12,2 C 12,2 C 95 % 1006,2 hPa 0,0 l/m 0 min 0 min 0 W/m 4,5 km/h (1 Bft) 95,74 %
27.08.2018 06:14 13,3 C 12,2 C 12,2 C 95 % 1006,2 hPa 0,0 l/m 0 min 0 min 0 W/m 6,8 km/h (2 Bft) 100,00 %
27.08.2018 06:16 13,3 C 12,2 C 12,2 C 95 % 1006,2 hPa 0,0 l/m 0 min 0 min 0 W/m 6,8 km/h (2 Bft) 100,00 %
27.08.2018 06:18 13,3 C 12,2 C 12,2 C 95 % 1006,2 hPa 0,0 l/m 0 min 0 min 0 W/m 4,5 km/h (1 Bft) 100,00 %
27.08.2018 06:20 13,3 C 12,8 C 12,2 C 96 % 1006,3 hPa 0,0 l/m 0 min 0 min 0 W/m 4,5 km/h (1 Bft) 100,00 %
27.08.2018 06:22 13,3 C 12,8 C 12,2 C 96 % 1006,3 hPa 0,0 l/m 0 min 0 min 0 W/m 6,8 km/h (2 Bft) 97,87 %
27.08.2018 06:24 13,4 C 12,8 C 12,2 C 96 % 1006,3 hPa 0,0 l/m 0 min 0 min 0 W/m 4,5 km/h (1 Bft) 100,00 %
27.08.2018 06:26 13,4 C 12,8 C 12,2 C 96 % 1006,3 hPa 0,0 l/m 0 min 0 min 0 W/m 0,0 km/h (0 Bft) 100,00 %
27.08.2018 06:28 13,4 C 12,8 C 12,2 C 96 % 1006,4 hPa 0,0 l/m 0 min 0 min 0 W/m 4,5 km/h (1 Bft) 100,00 %
27.08.2018 06:30 13,4 C 12,8 C 12,2 C 96 % 1006,3 hPa 0,0 l/m 0 min 0 min 0 W/m 4,5 km/h (1 Bft) 100,00 %
27.08.2018 06:32 13,4 C 12,8 C 12,2 C 96 % 1006,3 hPa 0,0 l/m 0 min 0 min 0 W/m 6,8 km/h (2 Bft) 100,00 %
27.08.2018 06:34 13,4 C 12,8 C 12,2 C 96 % 1006,3 hPa 0,0 l/m 0 min 0 min 0 W/m 4,5 km/h (1 Bft) 100,00 %
27.08.2018 06:36 13,4 C 12,8 C 12,2 C 96 % 1006,3 hPa 0,0 l/m 0 min 0 min 0 W/m 4,5 km/h (1 Bft) 100,00 %
27.08.2018 06:38 13,4 C 12,8 C 12,2 C 96 % 1006,3 hPa 0,0 l/m 0 min 0 min 0 W/m 6,8 km/h (2 Bft) 100,00 %
27.08.2018 06:40 13,4 C 12,8 C 12,2 C 96 % 1006,2 hPa 0,0 l/m 0 min 0 min 0 W/m 9,0 km/h (2 Bft) 97,87 %
27.08.2018 06:42 13,5 C 12,8 C 12,2 C 96 % 1006,3 hPa 0,0 l/m 0 min 0 min 0 W/m 2,3 km/h (1 Bft) 100,00 %
27.08.2018 06:44 13,5 C 12,8 C 12,2 C 96 % 1006,2 hPa 0,0 l/m 0 min 0 min 0 W/m 6,8 km/h (2 Bft) 97,92 %
27.08.2018 06:46 13,5 C 12,8 C 12,2 C 96 % 1006,3 hPa 0,0 l/m 0 min 0 min 0 W/m 2,3 km/h (1 Bft) 97,83 %
27.08.2018 06:48 13,5 C 12,8 C 12,2 C 96 % 1006,3 hPa 0,0 l/m 0 min 0 min 0 W/m 0,0 km/h (0 Bft) 97,92 %
27.08.2018 06:50 13,6 C 12,8 C 12,2 C 96 % 1006,3 hPa 0,0 l/m 0 min 0 min 0 W/m 0,0 km/h (0 Bft) 97,87 %
27.08.2018 06:52 13,6 C 12,8 C 12,8 C 96 % 1006,3 hPa 0,0 l/m 0 min 0 min 0 W/m 0,0 km/h (0 Bft) 97,96 %
27.08.2018 06:54 13,6 C 12,8 C 12,8 C 96 % 1006,4 hPa 0,0 l/m 0 min 0 min 0 W/m 4,5 km/h (1 Bft) 100,00 %
27.08.2018 06:56 13,6 C 13,3 C 12,8 C 96 % 1006,4 hPa 0,0 l/m 0 min 0 min 0 W/m 6,8 km/h (2 Bft) 97,87 %
27.08.2018 06:58 13,7 C 13,3 C 12,8 C 96 % 1006,4 hPa 0,0 l/m 0 min 0 min 2 W/m 4,5 km/h (1 Bft) 95,74 %
27.08.2018 07:00 13,7 C 13,3 C 12,8 C 96 % 1006,3 hPa 0,0 l/m 0 min 0 min 5 W/m 4,5 km/h (1 Bft) 97,56 %
27.08.2018 07:02 13,8 C 13,3 C 12,8 C 96 % 1006,4 hPa 0,0 l/m 0 min 0 min 5 W/m 11,3 km/h (2 Bft) 96,00 %
27.08.2018 07:04 13,9 C 13,3 C 13,3 C 97 % 1006,4 hPa 0,0 l/m 0 min 0 min 5 W/m 9,0 km/h (2 Bft) 97,87 %
27.08.2018 07:06 13,9 C 13,3 C 13,3 C 97 % 1006,5 hPa 0,0 l/m 0 min 0 min 7 W/m 6,8 km/h (2 Bft) 97,96 %
27.08.2018 07:08 14,0 C 13,9 C 13,3 C 97 % 1006,5 hPa 0,0 l/m 0 min 0 min 7 W/m 9,0 km/h (2 Bft) 97,87 %
27.08.2018 07:10 14,1 C 13,9 C 13,3 C 97 % 1006,5 hPa 0,0 l/m 0 min 0 min 8 W/m 6,8 km/h (2 Bft) 97,87 %
27.08.2018 07:12 14,2 C 13,9 C 13,3 C 97 % 1006,4 hPa 0,0 l/m 0 min 0 min 9 W/m 4,5 km/h (1 Bft) 97,87 %
27.08.2018 07:14 14,2 C 13,9 C 13,3 C 97 % 1006,5 hPa 0,0 l/m 0 min 0 min 9 W/m 6,8 km/h (2 Bft) 97,87 %
27.08.2018 07:16 14,2 C 13,9 C 13,3 C 97 % 1006,5 hPa 0,0 l/m 0 min 0 min 11 W/m 9,0 km/h (2 Bft) 97,87 %
27.08.2018 07:18 14,2 C 13,9 C 13,3 C 97 % 1006,6 hPa 0,0 l/m 0 min 0 min 10 W/m 13,5 km/h (3 Bft) 97,83 %
27.08.2018 07:20 14,3 C 13,9 C 13,3 C 97 % 1006,6 hPa 0,0 l/m 0 min 0 min 11 W/m 9,0 km/h (2 Bft) 95,74 %
27.08.2018 07:22 14,3 C 13,9 C 13,3 C 97 % 1006,6 hPa 0,0 l/m 0 min 0 min 12 W/m 9,0 km/h (2 Bft) 97,56 %
27.08.2018 07:24 14,4 C 13,9 C 13,3 C 97 % 1006,5 hPa 0,0 l/m 0 min 0 min 14 W/m 4,5 km/h (1 Bft) 95,83 %
27.08.2018 07:26 14,4 C 13,9 C 13,3 C 97 % 1006,6 hPa 0,0 l/m 0 min 0 min 15 W/m 4,5 km/h (1 Bft) 95,92 %
27.08.2018 07:28 14,4 C 13,9 C 13,3 C 97 % 1006,6 hPa 0,0 l/m 0 min 0 min 13 W/m 6,8 km/h (2 Bft) 95,92 %
27.08.2018 07:30 14,5 C 13,9 C 13,3 C 97 % 1006,6 hPa 0,0 l/m 0 min 0 min 12 W/m 4,5 km/h (1 Bft) 97,87 %
27.08.2018 07:32 14,5 C 13,9 C 13,3 C 97 % 1006,7 hPa 0,0 l/m 0 min 0 min 12 W/m 6,8 km/h (2 Bft) 95,74 %
27.08.2018 07:34 14,6 C 13,9 C 13,3 C 97 % 1006,7 hPa 0,0 l/m 0 min 0 min 12 W/m 6,8 km/h (2 Bft) 95,12 %
27.08.2018 07:36 14,6 C 13,9 C 13,9 C 97 % 1006,8 hPa 0,0 l/m 0 min 0 min 12 W/m 6,8 km/h (2 Bft) 97,22 %
27.08.2018 07:38 14,7 C 13,9 C 13,9 C 97 % 1006,7 hPa 0,0 l/m 0 min 0 min 12 W/m 11,3 km/h (2 Bft) 98,31 %
27.08.2018 07:40 14,7 C 13,9 C 13,9 C 97 % 1006,8 hPa 0,0 l/m 0 min 0 min 12 W/m 6,8 km/h (2 Bft) 97,14 %
27.08.2018 07:42 14,7 C 13,9 C 13,9 C 97 % 1006,8 hPa 0,0 l/m 0 min 0 min 12 W/m 6,8 km/h (2 Bft) 100,00 %
27.08.2018 07:44 14,7 C 13,9 C 13,9 C 97 % 1006,8 hPa 0,0 l/m 0 min 0 min 12 W/m 4,5 km/h (1 Bft) 100,00 %
27.08.2018 07:46 14,7 C 13,9 C 13,9 C 97 % 1006,8 hPa 0,0 l/m 0 min 0 min 13 W/m 6,8 km/h (2 Bft) 100,00 %
27.08.2018 07:48 14,8 C 13,9 C 13,9 C 97 % 1006,8 hPa 0,0 l/m 0 min 0 min 15 W/m 6,8 km/h (2 Bft) 100,00 %
27.08.2018 07:50 14,8 C 13,9 C 13,9 C 97 % 1006,8 hPa 0,0 l/m 0 min 0 min 18 W/m 6,8 km/h (2 Bft) 100,00 %
27.08.2018 07:52 14,8 C 13,9 C 13,9 C 97 % 1006,8 hPa 0,0 l/m 0 min 0 min 17 W/m 9,0 km/h (2 Bft) 100,00 %
27.08.2018 07:54 14,8 C 13,9 C 13,9 C 97 % 1006,8 hPa 0,0 l/m 0 min 0 min 17 W/m 6,8 km/h (2 Bft) 100,00 %
27.08.2018 07:56 14,8 C 13,9 C 13,9 C 97 % 1006,9 hPa 0,0 l/m 0 min 0 min 16 W/m 4,5 km/h (1 Bft) 100,00 %
27.08.2018 07:58 14,8 C 13,9 C 13,9 C 97 % 1006,9 hPa 0,0 l/m 0 min 0 min 16 W/m 6,8 km/h (2 Bft) 97,87 %
27.08.2018 08:00 14,8 C 14,4 C 13,9 C 97 % 1006,9 hPa 0,0 l/m 0 min 0 min 16 W/m 4,5 km/h (1 Bft) 97,37 %
27.08.2018 08:02 14,9 C 14,4 C 13,9 C 97 % 1006,9 hPa 0,0 l/m 0 min 0 min 19 W/m 6,8 km/h (2 Bft) 100,00 %
27.08.2018 08:04 14,9 C 14,4 C 13,9 C 97 % 1007,0 hPa 0,0 l/m 0 min 0 min 20 W/m 2,3 km/h (1 Bft) 98,28 %
27.08.2018 08:06 14,9 C 14,4 C 13,9 C 98 % 1007,0 hPa 0,0 l/m 0 min 0 min 20 W/m 2,3 km/h (1 Bft) 97,87 %
27.08.2018 08:08 14,9 C 14,4 C 13,9 C 98 % 1007,0 hPa 0,0 l/m 0 min 0 min 23 W/m 4,5 km/h (1 Bft) 96,67 %
27.08.2018 08:10 14,9 C 14,4 C 13,9 C 98 % 1007,0 hPa 0,0 l/m 0 min 0 min 23 W/m 9,0 km/h (2 Bft) 96,55 %
27.08.2018 08:12 14,9 C 14,4 C 13,9 C 98 % 1007,0 hPa 0,0 l/m 0 min 0 min 21 W/m 2,3 km/h (1 Bft) 100,00 %
27.08.2018 08:14 15,0 C 14,4 C 13,9 C 97 % 1007,0 hPa 0,0 l/m 0 min 0 min 21 W/m 6,8 km/h (2 Bft) 96,67 %
27.08.2018 08:16 15,0 C 14,4 C 13,9 C 97 % 1007,1 hPa 0,0 l/m 0 min 0 min 23 W/m 4,5 km/h (1 Bft) 97,87 %
27.08.2018 08:18 15,0 C 14,4 C 13,9 C 97 % 1007,1 hPa 0,0 l/m 0 min 0 min 21 W/m 4,5 km/h (1 Bft) 97,87 %
27.08.2018 08:20 15,0 C 14,4 C 13,9 C 97 % 1007,1 hPa 0,0 l/m 0 min 0 min 21 W/m 6,8 km/h (2 Bft) 97,87 %
27.08.2018 08:22 15,1 C 14,4 C 13,9 C 97 % 1007,1 hPa 0,0 l/m 0 min 0 min 26 W/m 9,0 km/h (2 Bft) 97,96 %
27.08.2018 08:24 15,1 C 14,4 C 13,9 C 97 % 1007,1 hPa 0,0 l/m 0 min 0 min 33 W/m 4,5 km/h (1 Bft) 97,87 %
27.08.2018 08:26 15,1 C 14,4 C 14,4 C 97 % 1007,1 hPa 0,0 l/m 0 min 0 min 33 W/m 4,5 km/h (1 Bft) 95,65 %
27.08.2018 08:28 15,1 C 14,4 C 14,4 C 97 % 1007,0 hPa 0,0 l/m 0 min 0 min 37 W/m 2,3 km/h (1 Bft) 97,22 %
27.08.2018 08:30 15,1 C 14,4 C 14,4 C 97 % 1007,0 hPa 0,0 l/m 0 min 0 min 39 W/m 4,5 km/h (1 Bft) 96,55 %
27.08.2018 08:32 15,2 C 14,4 C 14,4 C 97 % 1007,1 hPa 0,0 l/m 0 min 0 min 39 W/m 4,5 km/h (1 Bft) 95,74 %
27.08.2018 08:34 15,2 C 14,4 C 14,4 C 98 % 1007,1 hPa 0,0 l/m 0 min 0 min 44 W/m 6,8 km/h (2 Bft) 95,12 %
27.08.2018 08:36 15,2 C 14,4 C 14,4 C 98 % 1007,1 hPa 0,0 l/m 0 min 0 min 48 W/m 11,3 km/h (2 Bft) 95,83 %
27.08.2018 08:38 15,2 C 14,4 C 14,4 C 98 % 1007,1 hPa 0,0 l/m 0 min 0 min 50 W/m 6,8 km/h (2 Bft) 95,83 %
27.08.2018 08:40 15,2 C 14,4 C 14,4 C 98 % 1007,2 hPa 0,0 l/m 0 min 0 min 46 W/m 4,5 km/h (1 Bft) 95,74 %
27.08.2018 08:42 15,3 C 14,4 C 14,4 C 98 % 1007,3 hPa 0,0 l/m 0 min 0 min 45 W/m 4,5 km/h (1 Bft) 95,83 %
27.08.2018 08:44 15,3 C 14,4 C 15,0 C 98 % 1007,3 hPa 0,0 l/m 0 min 0 min 43 W/m 6,8 km/h (2 Bft) 93,75 %
27.08.2018 08:46 15,3 C 14,4 C 15,0 C 98 % 1007,3 hPa 0,0 l/m 0 min 0 min 37 W/m 6,8 km/h (2 Bft) 97,92 %
27.08.2018 08:48 15,3 C 14,4 C 15,0 C 98 % 1007,3 hPa 0,0 l/m 0 min 0 min 36 W/m 4,5 km/h (1 Bft) 97,14 %
27.08.2018 08:50 15,3 C 14,4 C 15,0 C 98 % 1007,3 hPa 0,0 l/m 0 min 0 min 29 W/m 9,0 km/h (2 Bft) 98,28 %
27.08.2018 08:52 15,4 C 14,4 C 15,0 C 98 % 1007,3 hPa 0,0 l/m 0 min 0 min 29 W/m 9,0 km/h (2 Bft) 97,87 %
27.08.2018 08:54 15,4 C 14,4 C 15,0 C 98 % 1007,3 hPa 0,0 l/m 0 min 0 min 38 W/m 6,8 km/h (2 Bft) 93,62 %
27.08.2018 08:56 15,4 C 15,0 C 15,0 C 98 % 1007,2 hPa 0,0 l/m 0 min 0 min 53 W/m 9,0 km/h (2 Bft) 95,74 %
27.08.2018 08:58 15,4 C 15,0 C 15,0 C 98 % 1007,2 hPa 0,0 l/m 0 min 0 min 50 W/m 11,3 km/h (2 Bft) 97,87 %
27.08.2018 09:00 15,4 C 15,0 C 15,0 C 98 % 1007,2 hPa 0,0 l/m 0 min 0 min 52 W/m 6,8 km/h (2 Bft) 97,56 %
27.08.2018 09:02 15,4 C 15,0 C 15,0 C 98 % 1007,2 hPa 0,0 l/m 0 min 0 min 57 W/m 6,8 km/h (2 Bft) 96,00 %
27.08.2018 09:04 15,5 C 15,0 C 15,0 C 98 % 1007,2 hPa 0,0 l/m 0 min 0 min 52 W/m 6,8 km/h (2 Bft) 97,37 %
27.08.2018 09:06 15,5 C 15,0 C 15,0 C 98 % 1007,1 hPa 0,0 l/m 0 min 0 min 45 W/m 9,0 km/h (2 Bft) 97,96 %
27.08.2018 09:08 15,5 C 15,0 C 15,0 C 98 % 1007,1 hPa 0,0 l/m 0 min 0 min 55 W/m 11,3 km/h (2 Bft) 97,92 %
27.08.2018 09:10 15,6 C 15,0 C 15,0 C 98 % 1007,2 hPa 0,0 l/m 0 min 0 min 71 W/m 6,8 km/h (2 Bft) 97,92 %
27.08.2018 09:12 15,6 C 15,0 C 15,0 C 98 % 1007,2 hPa 0,0 l/m 0 min 0 min 91 W/m 6,8 km/h (2 Bft) 97,96 %
27.08.2018 09:14 15,6 C 15,0 C 15,0 C 98 % 1007,2 hPa 0,0 l/m 0 min 0 min 90 W/m 6,8 km/h (2 Bft) 95,83 %
27.08.2018 09:16 15,7 C 15,0 C 15,0 C 98 % 1007,2 hPa 0,0 l/m 0 min 0 min 67 W/m 9,0 km/h (2 Bft) 95,74 %
27.08.2018 09:18 15,7 C 15,0 C 15,0 C 98 % 1007,2 hPa 0,0 l/m 0 min 0 min 91 W/m 9,0 km/h (2 Bft) 97,87 %
27.08.2018 09:20 15,7 C 15,0 C 15,6 C 98 % 1007,3 hPa 0,0 l/m 0 min 0 min 100 W/m 11,3 km/h (2 Bft) 95,74 %
27.08.2018 09:22 15,7 C 15,0 C 15,6 C 97 % 1007,3 hPa 0,0 l/m 0 min 0 min 67 W/m 9,0 km/h (2 Bft) 95,83 %
27.08.2018 09:24 15,8 C 15,0 C 15,6 C 97 % 1007,3 hPa 0,0 l/m 0 min 0 min 61 W/m 6,8 km/h (2 Bft) 95,74 %
27.08.2018 09:26 15,8 C 15,0 C 15,6 C 97 % 1007,5 hPa 0,0 l/m 0 min 0 min 62 W/m 13,5 km/h (3 Bft) 95,12 %
27.08.2018 09:28 15,8 C 15,0 C 15,6 C 97 % 1007,4 hPa 0,0 l/m 0 min 0 min 67 W/m 9,0 km/h (2 Bft) 97,87 %
27.08.2018 09:30 15,8 C 15,0 C 15,6 C 97 % 1007,4 hPa 0,0 l/m 0 min 0 min 74 W/m 11,3 km/h (2 Bft) 95,65 %
27.08.2018 09:32 15,9 C 15,6 C 15,6 C 98 % 1007,4 hPa 0,0 l/m 0 min 0 min 69 W/m 9,0 km/h (2 Bft) 95,92 %
27.08.2018 09:34 15,9 C 15,0 C 15,6 C 98 % 1007,4 hPa 0,0 l/m 0 min 0 min 55 W/m 11,3 km/h (2 Bft) 97,92 %
27.08.2018 09:36 15,9 C 15,0 C 15,6 C 97 % 1007,5 hPa 0,0 l/m 0 min 0 min 52 W/m 6,8 km/h (2 Bft) 93,75 %
27.08.2018 09:38 15,9 C 15,0 C 15,6 C 97 % 1007,5 hPa 0,0 l/m 0 min 0 min 56 W/m 11,3 km/h (2 Bft) 95,74 %
27.08.2018 09:40 15,9 C 15,6 C 15,6 C 97 % 1007,4 hPa 0,0 l/m 0 min 0 min 67 W/m 9,0 km/h (2 Bft) 97,83 %
27.08.2018 09:42 16,0 C 15,6 C 15,6 C 97 % 1007,5 hPa 0,0 l/m 0 min 0 min 92 W/m 9,0 km/h (2 Bft) 97,96 %
27.08.2018 09:44 16,0 C 15,6 C 15,6 C 97 % 1007,5 hPa 0,0 l/m 0 min 0 min 106 W/m 9,0 km/h (2 Bft) 95,74 %
27.08.2018 09:46 16,1 C 15,6 C 15,6 C 97 % 1007,4 hPa 0,0 l/m 0 min 0 min 137 W/m 6,8 km/h (2 Bft) 91,49 %
27.08.2018 09:48 16,1 C 15,6 C 15,6 C 97 % 1007,3 hPa 0,0 l/m 0 min 2 min 139 W/m 9,0 km/h (2 Bft) 97,87 %
27.08.2018 09:50 16,1 C 15,6 C 15,6 C 97 % 1007,3 hPa 0,0 l/m 0 min 2 min 131 W/m 9,0 km/h (2 Bft) 97,83 %
27.08.2018 09:52 16,2 C 15,6 C 15,6 C 97 % 1007,4 hPa 0,0 l/m 0 min 0 min 129 W/m 6,8 km/h (2 Bft) 97,67 %
27.08.2018 09:54 16,2 C 15,6 C 15,6 C 97 % 1007,5 hPa 0,0 l/m 0 min 0 min 147 W/m 11,3 km/h (2 Bft) 97,87 %
27.08.2018 09:56 16,2 C 15,6 C 15,6 C 97 % 1007,6 hPa 0,0 l/m 0 min 0 min 160 W/m 4,5 km/h (1 Bft) 97,96 %
27.08.2018 09:58 16,3 C 15,6 C 15,6 C 97 % 1007,5 hPa 0,0 l/m 0 min 0 min 127 W/m 11,3 km/h (2 Bft) 97,96 %
27.08.2018 10:00 16,3 C 15,6 C 15,6 C 97 % 1007,5 hPa 0,0 l/m 0 min 0 min 108 W/m 6,8 km/h (2 Bft) 97,92 %
27.08.2018 10:02 16,3 C 15,6 C 15,6 C 97 % 1007,6 hPa 0,0 l/m 0 min 0 min 121 W/m 9,0 km/h (2 Bft) 97,83 %
27.08.2018 10:04 16,4 C 15,6 C 15,6 C 97 % 1007,6 hPa 0,0 l/m 0 min 0 min 90 W/m 9,0 km/h (2 Bft) 97,87 %
27.08.2018 10:06 16,4 C 15,6 C 15,6 C 97 % 1007,6 hPa 0,0 l/m 0 min 0 min 62 W/m 11,3 km/h (2 Bft) 95,74 %
27.08.2018 10:08 16,4 C 15,6 C 15,6 C 97 % 1007,7 hPa 0,0 l/m 0 min 2 min 65 W/m 13,5 km/h (3 Bft) 100,00 %
27.08.2018 10:10 16,4 C 15,6 C 15,0 C 97 % 1007,7 hPa 0,0 l/m 0 min 2 min 78 W/m 13,5 km/h (3 Bft) 93,62 %
27.08.2018 10:12 16,4 C 15,6 C 15,0 C 97 % 1007,7 hPa 0,0 l/m 0 min 2 min 115 W/m 6,8 km/h (2 Bft) 97,96 %
27.08.2018 10:14 16,4 C 15,6 C 15,0 C 96 % 1007,7 hPa 0,0 l/m 0 min 2 min 110 W/m 9,0 km/h (2 Bft) 100,00 %
27.08.2018 10:16 16,5 C 15,6 C 15,0 C 96 % 1007,8 hPa 0,0 l/m 0 min 2 min 102 W/m 13,5 km/h (3 Bft) 97,83 %
27.08.2018 10:18 16,5 C 15,6 C 15,0 C 96 % 1007,8 hPa 0,0 l/m 0 min 2 min 108 W/m 11,3 km/h (2 Bft) 97,92 %
27.08.2018 10:20 16,5 C 15,6 C 15,0 C 96 % 1007,8 hPa 0,0 l/m 0 min 2 min 118 W/m 9,0 km/h (2 Bft) 97,87 %
27.08.2018 10:22 16,5 C 15,6 C 15,0 C 96 % 1007,8 hPa 0,0 l/m 0 min 2 min 166 W/m 9,0 km/h (2 Bft) 97,96 %
27.08.2018 10:24 16,5 C 15,6 C 15,0 C 97 % 1007,8 hPa 0,0 l/m 0 min 2 min 178 W/m 6,8 km/h (2 Bft) 97,22 %
27.08.2018 10:26 16,6 C 15,6 C 15,0 C 97 % 1007,9 hPa 0,0 l/m 0 min 2 min 199 W/m 9,0 km/h (2 Bft) 98,28 %
27.08.2018 10:28 16,6 C 15,6 C 15,0 C 97 % 1007,8 hPa 0,0 l/m 0 min 2 min 203 W/m 6,8 km/h (2 Bft) 97,87 %
27.08.2018 10:30 16,6 C 16,1 C 15,0 C 97 % 1007,8 hPa 0,0 l/m 0 min 0 min 187 W/m 4,5 km/h (1 Bft) 97,87 %
27.08.2018 10:32 16,6 C 15,6 C 15,0 C 97 % 1007,9 hPa 0,0 l/m 0 min 0 min 181 W/m 11,3 km/h (2 Bft) 97,14 %
27.08.2018 10:34 16,7 C 15,6 C 15,0 C 97 % 1007,8 hPa 0,0 l/m 0 min 0 min 177 W/m 9,0 km/h (2 Bft) 97,87 %
27.08.2018 10:36 16,7 C 15,6 C 15,0 C 97 % 1007,7 hPa 0,0 l/m 0 min 0 min 178 W/m 4,5 km/h (1 Bft) 100,00 %
27.08.2018 10:38 16,7 C 15,6 C 15,6 C 97 % 1007,7 hPa 0,0 l/m 0 min 0 min 199 W/m 11,3 km/h (2 Bft) 100,00 %
27.08.2018 10:40 16,7 C 16,1 C 15,6 C 97 % 1007,7 hPa 0,0 l/m 0 min 0 min 225 W/m 6,8 km/h (2 Bft) 100,00 %
27.08.2018 10:42 16,8 C 16,1 C 15,6 C 97 % 1007,7 hPa 0,0 l/m 0 min 0 min 242 W/m 9,0 km/h (2 Bft) 97,96 %
27.08.2018 10:44 16,8 C 16,1 C 15,6 C 97 % 1007,9 hPa 0,0 l/m 0 min 0 min 257 W/m 9,0 km/h (2 Bft) 97,14 %
27.08.2018 10:46 16,8 C 16,1 C 16,1 C 97 % 1007,9 hPa 0,0 l/m 0 min 0 min 256 W/m 9,0 km/h (2 Bft) 94,92 %
27.08.2018 10:48 16,9 C 16,1 C 16,1 C 97 % 1008,0 hPa 0,0 l/m 0 min 0 min 246 W/m 9,0 km/h (2 Bft) 97,56 %
27.08.2018 10:50 16,9 C 16,7 C 16,1 C 97 % 1007,9 hPa 0,0 l/m 0 min 0 min 241 W/m 4,5 km/h (1 Bft) 97,92 %
27.08.2018 10:52 16,9 C 16,7 C 16,1 C 97 % 1008,0 hPa 0,0 l/m 0 min 0 min 238 W/m 11,3 km/h (2 Bft) 97,83 %
27.08.2018 10:54 17,0 C 16,7 C 16,7 C 97 % 1007,9 hPa 0,0 l/m 0 min 0 min 248 W/m 9,0 km/h (2 Bft) 100,00 %
27.08.2018 10:56 17,1 C 16,7 C 16,7 C 97 % 1007,9 hPa 0,0 l/m 0 min 0 min 237 W/m 9,0 km/h (2 Bft) 98,33 %
27.08.2018 10:58 17,1 C 17,2 C 16,7 C 97 % 1008,0 hPa 0,0 l/m 0 min 0 min 260 W/m 4,5 km/h (1 Bft) 97,14 %
27.08.2018 11:00 17,2 C 17,2 C 16,7 C 97 % 1008,0 hPa 0,0 l/m 0 min 0 min 262 W/m 4,5 km/h (1 Bft) 98,00 %
27.08.2018 11:02 17,2 C 16,7 C 16,7 C 97 % 1008,1 hPa 0,0 l/m 0 min 0 min 283 W/m 13,5 km/h (3 Bft) 97,87 %
27.08.2018 11:04 17,2 C 16,7 C 16,7 C 97 % 1008,1 hPa 0,0 l/m 0 min 0 min 275 W/m 11,3 km/h (2 Bft) 97,67 %
27.08.2018 11:06 17,3 C 16,7 C 16,7 C 97 % 1008,1 hPa 0,0 l/m 0 min 0 min 245 W/m 9,0 km/h (2 Bft) 97,87 %
27.08.2018 11:08 17,3 C 17,2 C 16,7 C 97 % 1008,1 hPa 0,0 l/m 0 min 0 min 286 W/m 13,5 km/h (3 Bft) 95,83 %
27.08.2018 11:10 17,4 C 17,2 C 17,2 C 97 % 1008,1 hPa 0,0 l/m 0 min 0 min 303 W/m 13,5 km/h (3 Bft) 95,74 %
27.08.2018 11:12 17,4 C 17,8 C 17,2 C 97 % 1008,2 hPa 0,0 l/m 2 min 0 min 363 W/m 13,5 km/h (3 Bft) 97,96 %
27.08.2018 11:14 17,5 C 18,3 C 17,2 C 96 % 1008,1 hPa 0,0 l/m 2 min 0 min 346 W/m 11,3 km/h (2 Bft) 97,87 %
27.08.2018 11:16 17,6 C 18,3 C 17,2 C 96 % 1008,1 hPa 0,0 l/m 2 min 0 min 337 W/m 9,0 km/h (2 Bft) 97,87 %
27.08.2018 11:18 17,6 C 18,3 C 17,2 C 96 % 1007,9 hPa 0,0 l/m 0 min 0 min 263 W/m 13,5 km/h (3 Bft) 97,87 %
27.08.2018 11:20 17,7 C 19,4 C 17,2 C 96 % 1007,9 hPa 0,0 l/m 0 min 0 min 278 W/m 9,0 km/h (2 Bft) 97,87 %
27.08.2018 11:22 17,8 C 20,0 C 17,2 C 96 % 1007,9 hPa 0,0 l/m 0 min 0 min 269 W/m 6,8 km/h (2 Bft) 95,83 %
27.08.2018 11:24 17,9 C 20,0 C 17,8 C 96 % 1007,9 hPa 0,0 l/m 0 min 0 min 257 W/m 9,0 km/h (2 Bft) 100,00 %
27.08.2018 11:26 18,0 C 20,0 C 17,8 C 96 % 1007,9 hPa 0,0 l/m 2 min 0 min 322 W/m 9,0 km/h (2 Bft) 97,83 %
27.08.2018 11:28 18,1 C 20,6 C 17,8 C 95 % 1007,9 hPa 0,0 l/m 2 min 0 min 359 W/m 11,3 km/h (2 Bft) 100,00 %
27.08.2018 11:30 18,1 C 20,0 C 17,8 C 95 % 1008,0 hPa 0,0 l/m 0 min 0 min 315 W/m 11,3 km/h (2 Bft) 100,00 %
27.08.2018 11:32 18,2 C 20,0 C 17,8 C 94 % 1007,9 hPa 0,0 l/m 0 min 0 min 274 W/m 4,5 km/h (1 Bft) 97,96 %
27.08.2018 11:34 18,3 C 19,4 C 17,8 C 94 % 1007,9 hPa 0,0 l/m 0 min 0 min 266 W/m 9,0 km/h (2 Bft) 100,00 %
27.08.2018 11:36 18,3 C 19,4 C 17,8 C 94 % 1007,8 hPa 0,0 l/m 0 min 0 min 227 W/m 13,5 km/h (3 Bft) 97,87 %
27.08.2018 11:38 18,4 C 20,0 C 17,8 C 93 % 1007,9 hPa 0,0 l/m 0 min 0 min 314 W/m 11,3 km/h (2 Bft) 100,00 %
27.08.2018 11:40 18,4 C 20,0 C 18,3 C 92 % 1007,9 hPa 0,0 l/m 0 min 0 min 310 W/m 11,3 km/h (2 Bft) 97,83 %
27.08.2018 11:42 18,5 C 20,0 C 18,3 C 92 % 1007,9 hPa 0,0 l/m 0 min 0 min 281 W/m 13,5 km/h (3 Bft) 100,00 %
27.08.2018 11:44 18,6 C 19,4 C 18,3 C 91 % 1008,0 hPa 0,0 l/m 0 min 0 min 211 W/m 6,8 km/h (2 Bft) 100,00 %
27.08.2018 11:46 18,7 C 19,4 C 18,3 C 91 % 1008,0 hPa 0,0 l/m 0 min 0 min 207 W/m 6,8 km/h (2 Bft) 100,00 %
27.08.2018 11:48 18,7 C 19,4 C 18,3 C 90 % 1008,0 hPa 0,0 l/m 0 min 0 min 211 W/m 11,3 km/h (2 Bft) 100,00 %
27.08.2018 11:50 18,8 C 19,4 C 18,3 C 90 % 1008,0 hPa 0,0 l/m 0 min 0 min 180 W/m 9,0 km/h (2 Bft) 100,00 %
27.08.2018 11:52 18,8 C 18,9 C 18,3 C 89 % 1008,0 hPa 0,0 l/m 0 min 0 min 140 W/m 11,3 km/h (2 Bft) 100,00 %
27.08.2018 11:54 18,9 C 18,9 C 18,3 C 89 % 1007,9 hPa 0,0 l/m 0 min 0 min 106 W/m 13,5 km/h (3 Bft) 100,00 %
27.08.2018 11:56 18,9 C 18,9 C 17,8 C 88 % 1007,9 hPa 0,0 l/m 0 min 0 min 86 W/m 9,0 km/h (2 Bft) 95,74 %
27.08.2018 11:58 18,9 C 18,9 C 17,8 C 88 % 1007,9 hPa 0,0 l/m 0 min 2 min 57 W/m 6,8 km/h (2 Bft) 95,74 %
27.08.2018 12:00 18,9 C 18,9 C 17,8 C 88 % 1007,9 hPa 0,0 l/m 0 min 0 min 53 W/m 9,0 km/h (2 Bft) 95,65 %
27.08.2018 12:02 18,9 C 18,3 C 17,8 C 88 % 1007,9 hPa 0,0 l/m 0 min 0 min 60 W/m 9,0 km/h (2 Bft) 95,74 %
27.08.2018 12:04 18,9 C 18,3 C 17,8 C 87 % 1007,9 hPa 0,0 l/m 0 min 2 min 41 W/m 6,8 km/h (2 Bft) 97,67 %
27.08.2018 12:06 19,0 C 18,3 C 17,2 C 87 % 1008,1 hPa 0,0 l/m 0 min 0 min 29 W/m 11,3 km/h (2 Bft) 97,87 %
27.08.2018 12:08 18,9 C 17,8 C 17,2 C 87 % 1008,1 hPa 0,0 l/m 0 min 2 min 27 W/m 6,8 km/h (2 Bft) 97,87 %
27.08.2018 12:10 18,9 C 17,2 C 17,2 C 87 % 1008,2 hPa 0,0 l/m 0 min 2 min 48 W/m 11,3 km/h (2 Bft) 97,92 %
27.08.2018 12:12 18,9 C 17,2 C 17,2 C 87 % 1008,2 hPa 0,0 l/m 0 min 2 min 63 W/m 13,5 km/h (3 Bft) 97,87 %
27.08.2018 12:14 18,9 C 17,2 C 17,2 C 87 % 1008,2 hPa 0,0 l/m 0 min 2 min 99 W/m 9,0 km/h (2 Bft) 97,96 %
27.08.2018 12:16 18,8 C 17,2 C 17,2 C 87 % 1008,3 hPa 0,0 l/m 0 min 2 min 105 W/m 9,0 km/h (2 Bft) 97,83 %
27.08.2018 12:18 18,8 C 17,8 C 17,2 C 87 % 1008,2 hPa 0,0 l/m 0 min 2 min 130 W/m 13,5 km/h (3 Bft) 97,92 %
27.08.2018 12:20 18,7 C 17,8 C 17,2 C 86 % 1008,2 hPa 0,0 l/m 0 min 2 min 172 W/m 6,8 km/h (2 Bft) 97,87 %
27.08.2018 12:22 18,7 C 17,8 C 17,2 C 86 % 1008,2 hPa 0,0 l/m 0 min 0 min 161 W/m 9,0 km/h (2 Bft) 97,87 %
27.08.2018 12:24 18,6 C 18,3 C 17,2 C 86 % 1008,2 hPa 0,0 l/m 0 min 0 min 206 W/m 4,5 km/h (1 Bft) 97,87 %
27.08.2018 12:26 18,6 C 20,0 C 17,2 C 86 % 1008,2 hPa 0,0 l/m 0 min 0 min 285 W/m 13,5 km/h (3 Bft) 97,83 %
27.08.2018 12:28 18,6 C 20,6 C 17,2 C 86 % 1008,3 hPa 0,0 l/m 0 min 0 min 272 W/m 9,0 km/h (2 Bft) 95,74 %
27.08.2018 12:30 18,7 C 22,2 C 17,8 C 86 % 1008,3 hPa 0,0 l/m 0 min 0 min 275 W/m 6,8 km/h (2 Bft) 95,74 %
27.08.2018 12:32 18,8 C 21,7 C 17,8 C 86 % 1008,3 hPa 0,0 l/m 0 min 0 min 266 W/m 9,0 km/h (2 Bft) 95,83 %
27.08.2018 12:34 18,8 C 22,8 C 17,8 C 86 % 1008,3 hPa 0,0 l/m 0 min 0 min 301 W/m 9,0 km/h (2 Bft) 97,83 %
27.08.2018 12:36 18,9 C 22,2 C 18,3 C 86 % 1008,4 hPa 0,0 l/m 0 min 0 min 292 W/m 6,8 km/h (2 Bft) 97,87 %
27.08.2018 12:38 19,1 C 22,2 C 17,8 C 85 % 1008,5 hPa 0,0 l/m 0 min 0 min 293 W/m 6,8 km/h (2 Bft) 95,24 %
27.08.2018 12:40 19,1 C 22,2 C 18,3 C 85 % 1008,4 hPa 0,0 l/m 0 min 0 min 350 W/m 13,5 km/h (3 Bft) 93,48 %
27.08.2018 12:42 19,2 C 22,8 C 18,3 C 85 % 1008,4 hPa 0,0 l/m 0 min 0 min 357 W/m 9,0 km/h (2 Bft) 95,92 %
27.08.2018 12:44 19,3 C 21,7 C 18,3 C 84 % 1008,5 hPa 0,0 l/m 0 min 0 min 341 W/m 11,3 km/h (2 Bft) 97,92 %
27.08.2018 12:46 19,4 C 21,7 C 18,3 C 84 % 1008,5 hPa 0,0 l/m 0 min 0 min 358 W/m 9,0 km/h (2 Bft) 97,87 %
27.08.2018 12:48 19,4 C 22,8 C 18,3 C 82 % 1008,5 hPa 0,0 l/m 2 min 0 min 405 W/m 13,5 km/h (3 Bft) 95,83 %
27.08.2018 12:50 19,6 C 22,8 C 18,9 C 82 % 1008,5 hPa 0,0 l/m 2 min 0 min 411 W/m 9,0 km/h (2 Bft) 95,65 %
27.08.2018 12:52 19,7 C 22,8 C 18,9 C 81 % 1008,6 hPa 0,0 l/m 2 min 0 min 405 W/m 6,8 km/h (2 Bft) 97,92 %
27.08.2018 12:54 19,8 C 22,2 C 18,9 C 80 % 1008,6 hPa 0,0 l/m 2 min 0 min 413 W/m 18,0 km/h (3 Bft) 97,92 %
27.08.2018 12:56 19,9 C 22,8 C 18,9 C 78 % 1008,7 hPa 0,0 l/m 2 min 0 min 385 W/m 13,5 km/h (3 Bft) 95,74 %
27.08.2018 12:58 20,0 C 22,2 C 18,9 C 77 % 1008,6 hPa 0,0 l/m 2 min 0 min 394 W/m 15,8 km/h (3 Bft) 97,83 %
27.08.2018 13:00 20,1 C 21,1 C 18,9 C 75 % 1008,7 hPa 0,0 l/m 0 min 0 min 322 W/m 15,8 km/h (3 Bft) 95,74 %
27.08.2018 13:02 20,1 C 21,1 C 18,9 C 75 % 1008,8 hPa 0,0 l/m 0 min 0 min 324 W/m 13,5 km/h (3 Bft) 97,87 %
27.08.2018 13:04 20,1 C 20,6 C 18,3 C 74 % 1008,8 hPa 0,0 l/m 0 min 0 min 293 W/m 11,3 km/h (2 Bft) 97,87 %
27.08.2018 13:06 20,1 C 20,6 C 18,3 C 74 % 1008,8 hPa 0,0 l/m 0 min 0 min 288 W/m 18,0 km/h (3 Bft) 95,83 %
27.08.2018 13:08 20,1 C 20,6 C 18,3 C 73 % 1008,8 hPa 0,0 l/m 0 min 0 min 337 W/m 18,0 km/h (3 Bft) 97,87 %
27.08.2018 13:10 20,1 C 20,6 C 18,3 C 73 % 1008,9 hPa 0,0 l/m 0 min 0 min 348 W/m 11,3 km/h (2 Bft) 95,65 %
27.08.2018 13:12 20,1 C 20,6 C 18,9 C 72 % 1008,9 hPa 0,0 l/m 0 min 0 min 341 W/m 11,3 km/h (2 Bft) 97,67 %
27.08.2018 13:14 20,1 C 20,6 C 18,3 C 71 % 1008,9 hPa 0,0 l/m 0 min 0 min 324 W/m 18,0 km/h (3 Bft) 97,87 %
27.08.2018 13:16 20,1 C 20,6 C 18,3 C 71 % 1008,9 hPa 0,0 l/m 0 min 0 min 246 W/m 11,3 km/h (2 Bft) 95,83 %
27.08.2018 13:18 20,1 C 20,0 C 18,3 C 71 % 1008,9 hPa 0,0 l/m 0 min 0 min 232 W/m 11,3 km/h (2 Bft) 97,96 %
27.08.2018 13:20 20,1 C 20,0 C 18,3 C 71 % 1008,9 hPa 0,0 l/m 0 min 0 min 260 W/m 15,8 km/h (3 Bft) 93,75 %
27.08.2018 13:22 20,1 C 20,6 C 18,3 C 71 % 1008,9 hPa 0,0 l/m 0 min 0 min 298 W/m 11,3 km/h (2 Bft) 95,65 %
27.08.2018 13:24 20,1 C 21,1 C 18,9 C 71 % 1008,9 hPa 0,0 l/m 2 min 0 min 423 W/m 11,3 km/h (2 Bft) 93,62 %
27.08.2018 13:26 20,1 C 21,7 C 18,9 C 71 % 1008,9 hPa 0,0 l/m 2 min 0 min 651 W/m 13,5 km/h (3 Bft) 93,62 %
27.08.2018 13:28 20,2 C 21,7 C 18,9 C 71 % 1009,0 hPa 0,0 l/m 2 min 0 min 649 W/m 9,0 km/h (2 Bft) 93,62 %
27.08.2018 13:30 20,3 C 22,2 C 19,4 C 72 % 1008,9 hPa 0,0 l/m 2 min 0 min 661 W/m 9,0 km/h (2 Bft) 95,74 %
27.08.2018 13:32 20,4 C 22,8 C 19,4 C 73 % 1008,9 hPa 0,0 l/m 2 min 0 min 621 W/m 6,8 km/h (2 Bft) 95,74 %
27.08.2018 13:34 20,4 C 22,2 C 19,4 C 71 % 1009,0 hPa 0,0 l/m 2 min 0 min 613 W/m 18,0 km/h (3 Bft) 95,65 %
27.08.2018 13:36 20,6 C 22,8 C 20,0 C 71 % 1008,9 hPa 0,0 l/m 2 min 0 min 761 W/m 11,3 km/h (2 Bft) 95,74 %
27.08.2018 13:38 20,7 C 22,2 C 19,4 C 71 % 1009,0 hPa 0,0 l/m 2 min 0 min 683 W/m 13,5 km/h (3 Bft) 95,74 %
27.08.2018 13:40 20,8 C 21,7 C 19,4 C 70 % 1009,0 hPa 0,0 l/m 2 min 0 min 369 W/m 13,5 km/h (3 Bft) 95,12 %
27.08.2018 13:42 20,8 C 21,1 C 19,4 C 70 % 1009,0 hPa 0,0 l/m 0 min 0 min 336 W/m 11,3 km/h (2 Bft) 93,62 %
27.08.2018 13:44 20,9 C 21,7 C 19,4 C 69 % 1009,1 hPa 0,0 l/m 2 min 0 min 705 W/m 13,5 km/h (3 Bft) 95,83 %
27.08.2018 13:46 20,9 C 21,7 C 19,4 C 70 % 1009,0 hPa 0,0 l/m 2 min 0 min 702 W/m 9,0 km/h (2 Bft) 95,83 %
27.08.2018 13:48 21,0 C 22,2 C 20,0 C 71 % 1009,0 hPa 0,0 l/m 2 min 0 min 712 W/m 6,8 km/h (2 Bft) 95,74 %
27.08.2018 13:50 21,0 C 22,2 C 19,4 C 71 % 1009,1 hPa 0,0 l/m 2 min 0 min 712 W/m 9,0 km/h (2 Bft) 97,92 %
27.08.2018 13:52 21,1 C 21,7 C 19,4 C 69 % 1009,0 hPa 0,0 l/m 2 min 0 min 577 W/m 11,3 km/h (2 Bft) 97,87 %
27.08.2018 13:54 21,1 C 21,7 C 19,4 C 69 % 1009,1 hPa 0,0 l/m 2 min 0 min 377 W/m 15,8 km/h (3 Bft) 95,83 %
27.08.2018 13:56 21,1 C 22,2 C 19,4 C 68 % 1009,1 hPa 0,0 l/m 2 min 0 min 440 W/m 13,5 km/h (3 Bft) 97,87 %
27.08.2018 13:58 21,1 C 22,2 C 20,0 C 68 % 1009,1 hPa 0,0 l/m 2 min 0 min 719 W/m 11,3 km/h (2 Bft) 97,87 %
27.08.2018 14:00 21,2 C 22,2 C 20,0 C 68 % 1009,1 hPa 0,0 l/m 2 min 0 min 752 W/m 11,3 km/h (2 Bft) 95,74 %
27.08.2018 14:02 21,2 C 22,2 C 20,0 C 67 % 1009,0 hPa 0,0 l/m 2 min 0 min 755 W/m 11,3 km/h (2 Bft) 100,00 %
27.08.2018 14:04 21,3 C 22,2 C 20,0 C 67 % 1009,1 hPa 0,0 l/m 2 min 0 min 758 W/m 11,3 km/h (2 Bft) 100,00 %
27.08.2018 14:06 21,4 C 22,8 C 20,0 C 67 % 1009,1 hPa 0,0 l/m 2 min 0 min 782 W/m 9,0 km/h (2 Bft) 100,00 %
27.08.2018 14:08 21,4 C 22,2 C 20,0 C 66 % 1009,1 hPa 0,0 l/m 2 min 0 min 793 W/m 11,3 km/h (2 Bft) 97,83 %
27.08.2018 14:10 21,5 C 22,2 C 20,0 C 65 % 1009,1 hPa 0,0 l/m 2 min 0 min 698 W/m 11,3 km/h (2 Bft) 100,00 %
27.08.2018 14:12 21,5 C 21,7 C 20,0 C 64 % 1009,3 hPa 0,0 l/m 2 min 0 min 505 W/m 24,8 km/h (4 Bft) 100,00 %
27.08.2018 14:14 21,5 C 21,7 C 20,0 C 64 % 1009,3 hPa 0,0 l/m 0 min 0 min 343 W/m 15,8 km/h (3 Bft) 100,00 %
27.08.2018 14:16 21,5 C 21,1 C 19,4 C 64 % 1009,4 hPa 0,0 l/m 0 min 0 min 314 W/m 13,5 km/h (3 Bft) 97,96 %
27.08.2018 14:18 21,4 C 21,1 C 19,4 C 64 % 1009,4 hPa 0,0 l/m 2 min 0 min 364 W/m 11,3 km/h (2 Bft) 100,00 %
27.08.2018 14:20 21,4 C 21,7 C 19,4 C 64 % 1009,4 hPa 0,0 l/m 2 min 0 min 391 W/m 9,0 km/h (2 Bft) 100,00 %
27.08.2018 14:22 21,4 C 21,7 C 19,4 C 65 % 1009,4 hPa 0,0 l/m 2 min 0 min 385 W/m 6,8 km/h (2 Bft) 100,00 %
27.08.2018 14:24 21,4 C 22,2 C 20,0 C 65 % 1009,4 hPa 0,0 l/m 2 min 0 min 396 W/m 6,8 km/h (2 Bft) 100,00 %
27.08.2018 14:26 21,4 C 22,2 C 20,0 C 65 % 1009,4 hPa 0,0 l/m 2 min 0 min 409 W/m 4,5 km/h (1 Bft) 100,00 %
27.08.2018 14:28 21,4 C 22,2 C 20,0 C 65 % 1009,4 hPa 0,0 l/m 2 min 0 min 565 W/m 11,3 km/h (2 Bft) 100,00 %
27.08.2018 14:30 21,5 C 22,2 C 20,0 C 65 % 1009,4 hPa 0,0 l/m 2 min 0 min 705 W/m 9,0 km/h (2 Bft) 100,00 %
27.08.2018 14:32 21,5 C 22,8 C 20,0 C 64 % 1009,4 hPa 0,0 l/m 2 min 0 min 757 W/m 11,3 km/h (2 Bft) 97,92 %
27.08.2018 14:34 21,6 C 22,2 C 20,0 C 63 % 1009,4 hPa 0,0 l/m 2 min 0 min 756 W/m 18,0 km/h (3 Bft) 95,74 %
27.08.2018 14:36 21,6 C 22,2 C 20,0 C 62 % 1009,5 hPa 0,0 l/m 2 min 0 min 686 W/m 9,0 km/h (2 Bft) 97,87 %
27.08.2018 14:38 21,6 C 22,2 C 20,0 C 62 % 1009,5 hPa 0,0 l/m 0 min 0 min 256 W/m 9,0 km/h (2 Bft) 100,00 %
27.08.2018 14:40 21,7 C 22,2 C 20,0 C 65 % 1009,7 hPa 0,0 l/m 0 min 0 min 245 W/m 11,3 km/h (2 Bft) 100,00 %
27.08.2018 14:42 21,7 C 21,7 C 20,0 C 65 % 1009,8 hPa 0,0 l/m 0 min 0 min 259 W/m 11,3 km/h (2 Bft) 100,00 %
27.08.2018 14:44 21,6 C 21,1 C 19,4 C 65 % 1009,8 hPa 0,0 l/m 0 min 0 min 275 W/m 13,5 km/h (3 Bft) 100,00 %
27.08.2018 14:46 21,6 C 21,7 C 19,4 C 66 % 1009,8 hPa 0,0 l/m 0 min 0 min 276 W/m 15,8 km/h (3 Bft) 100,00 %
27.08.2018 14:48 21,5 C 21,7 C 19,4 C 66 % 1009,8 hPa 0,0 l/m 2 min 0 min 512 W/m 18,0 km/h (3 Bft) 97,87 %
27.08.2018 14:50 21,4 C 21,1 C 19,4 C 66 % 1009,7 hPa 0,0 l/m 0 min 0 min 274 W/m 15,8 km/h (3 Bft) 100,00 %
27.08.2018 14:52 21,4 C 21,1 C 19,4 C 66 % 1009,7 hPa 0,0 l/m 0 min 0 min 292 W/m 11,3 km/h (2 Bft) 100,00 %
27.08.2018 14:54 21,4 C 21,1 C 19,4 C 67 % 1009,8 hPa 0,0 l/m 0 min 0 min 308 W/m 13,5 km/h (3 Bft) 100,00 %
27.08.2018 14:56 21,3 C 21,1 C 19,4 C 67 % 1009,8 hPa 0,0 l/m 0 min 0 min 312 W/m 13,5 km/h (3 Bft) 100,00 %
27.08.2018 14:58 21,3 C 21,1 C 19,4 C 67 % 1009,8 hPa 0,0 l/m 0 min 0 min 295 W/m 11,3 km/h (2 Bft) 100,00 %
27.08.2018 15:00 21,2 C 21,1 C 19,4 C 68 % 1009,9 hPa 0,0 l/m 0 min 0 min 254 W/m 20,3 km/h (4 Bft) 100,00 %
27.08.2018 15:02 21,2 C 21,1 C 19,4 C 67 % 1009,9 hPa 0,0 l/m 0 min 0 min 255 W/m 11,3 km/h (2 Bft) 100,00 %
27.08.2018 15:04 21,1 C 20,6 C 19,4 C 67 % 1009,9 hPa 0,0 l/m 0 min 0 min 268 W/m 9,0 km/h (2 Bft) 100,00 %
27.08.2018 15:06 21,1 C 20,6 C 19,4 C 67 % 1009,9 hPa 0,0 l/m 0 min 0 min 274 W/m 9,0 km/h (2 Bft) 100,00 %
27.08.2018 15:08 21,1 C 21,1 C 19,4 C 67 % 1009,9 hPa 0,0 l/m 0 min 0 min 278 W/m 4,5 km/h (1 Bft) 97,83 %
27.08.2018 15:10 21,0 C 21,1 C 19,4 C 67 % 1009,9 hPa 0,0 l/m 0 min 0 min 306 W/m 11,3 km/h (2 Bft) 100,00 %
27.08.2018 15:12 21,0 C 21,1 C 19,4 C 67 % 1010,0 hPa 0,0 l/m 0 min 0 min 340 W/m 9,0 km/h (2 Bft) 97,87 %
27.08.2018 15:14 21,0 C 21,1 C 19,4 C 67 % 1010,0 hPa 0,0 l/m 2 min 0 min 355 W/m 6,8 km/h (2 Bft) 97,56 %
27.08.2018 15:16 21,0 C 21,7 C 19,4 C 67 % 1010,1 hPa 0,0 l/m 2 min 0 min 345 W/m 6,8 km/h (2 Bft) 97,92 %
27.08.2018 15:18 21,0 C 21,7 C 20,0 C 67 % 1010,1 hPa 0,0 l/m 0 min 0 min 319 W/m 6,8 km/h (2 Bft) 95,74 %
27.08.2018 15:20 21,0 C 21,7 C 20,0 C 66 % 1010,1 hPa 0,0 l/m 0 min 0 min 263 W/m 11,3 km/h (2 Bft) 97,92 %
27.08.2018 15:22 21,1 C 21,1 C 19,4 C 66 % 1010,2 hPa 0,0 l/m 0 min 0 min 208 W/m 11,3 km/h (2 Bft) 98,00 %
27.08.2018 15:24 21,0 C 20,6 C 19,4 C 66 % 1010,2 hPa 0,0 l/m 0 min 0 min 166 W/m 9,0 km/h (2 Bft) 93,62 %
27.08.2018 15:26 21,0 C 20,6 C 19,4 C 65 % 1010,3 hPa 0,0 l/m 0 min 0 min 152 W/m 11,3 km/h (2 Bft) 97,87 %
27.08.2018 15:28 20,9 C 20,0 C 19,4 C 64 % 1010,3 hPa 0,0 l/m 0 min 0 min 191 W/m 11,3 km/h (2 Bft) 97,87 %
27.08.2018 15:30 20,9 C 20,6 C 18,9 C 65 % 1010,3 hPa 0,0 l/m 0 min 0 min 242 W/m 20,3 km/h (4 Bft) 100,00 %
27.08.2018 15:32 20,9 C 20,6 C 19,4 C 65 % 1010,3 hPa 0,0 l/m 0 min 0 min 304 W/m 9,0 km/h (2 Bft) 96,72 %
27.08.2018 15:34 20,8 C 21,1 C 19,4 C 65 % 1010,3 hPa 0,0 l/m 2 min 0 min 330 W/m 11,3 km/h (2 Bft) 95,74 %
27.08.2018 15:36 20,8 C 21,1 C 19,4 C 65 % 1010,4 hPa 0,0 l/m 0 min 0 min 323 W/m 15,8 km/h (3 Bft) 97,92 %
27.08.2018 15:38 20,8 C 21,1 C 19,4 C 65 % 1010,5 hPa 0,0 l/m 2 min 0 min 334 W/m 13,5 km/h (3 Bft) 97,87 %
27.08.2018 15:40 20,9 C 21,1 C 19,4 C 65 % 1010,6 hPa 0,0 l/m 2 min 0 min 348 W/m 11,3 km/h (2 Bft) 97,87 %
27.08.2018 15:42 20,9 C 21,7 C 20,0 C 66 % 1010,5 hPa 0,0 l/m 2 min 0 min 360 W/m 11,3 km/h (2 Bft) 97,56 %
27.08.2018 15:44 21,0 C 21,7 C 20,0 C 66 % 1010,6 hPa 0,0 l/m 2 min 0 min 330 W/m 9,0 km/h (2 Bft) 95,74 %
27.08.2018 15:46 21,0 C 21,1 C 20,0 C 66 % 1010,7 hPa 0,0 l/m 0 min 0 min 308 W/m 11,3 km/h (2 Bft) 95,92 %
27.08.2018 15:48 21,0 C 21,1 C 19,4 C 65 % 1010,6 hPa 0,0 l/m 2 min 0 min 322 W/m 18,0 km/h (3 Bft) 97,92 %
27.08.2018 15:50 21,0 C 21,1 C 19,4 C 65 % 1010,7 hPa 0,0 l/m 2 min 0 min 323 W/m 11,3 km/h (2 Bft) 95,92 %
27.08.2018 15:52 21,0 C 21,1 C 19,4 C 65 % 1010,9 hPa 0,0 l/m 2 min 0 min 317 W/m 11,3 km/h (2 Bft) 95,65 %
27.08.2018 15:54 21,0 C 21,1 C 19,4 C 65 % 1010,8 hPa 0,0 l/m 2 min 0 min 342 W/m 9,0 km/h (2 Bft) 93,62 %
27.08.2018 15:56 21,0 C 21,1 C 19,4 C 65 % 1010,8 hPa 0,0 l/m 2 min 0 min 337 W/m 9,0 km/h (2 Bft) 93,62 %
27.08.2018 15:58 21,0 C 21,1 C 19,4 C 64 % 1010,8 hPa 0,0 l/m 0 min 0 min 304 W/m 13,5 km/h (3 Bft) 93,62 %
27.08.2018 16:00 21,0 C 21,7 C 20,0 C 63 % 1010,7 hPa 0,0 l/m 2 min 0 min 324 W/m 13,5 km/h (3 Bft) 95,74 %
27.08.2018 16:02 21,1 C 21,7 C 20,0 C 63 % 1010,7 hPa 0,0 l/m 2 min 0 min 394 W/m 13,5 km/h (3 Bft) 95,74 %
27.08.2018 16:04 21,1 C 21,7 C 20,0 C 65 % 1010,8 hPa 0,0 l/m 2 min 0 min 361 W/m 11,3 km/h (2 Bft) 95,24 %
27.08.2018 16:06 21,1 C 22,2 C 20,0 C 64 % 1010,7 hPa 0,0 l/m 2 min 0 min 343 W/m 11,3 km/h (2 Bft) 91,67 %
27.08.2018 16:08 21,2 C 22,2 C 20,0 C 64 % 1010,7 hPa 0,0 l/m 2 min 0 min 325 W/m 11,3 km/h (2 Bft) 95,74 %
27.08.2018 16:10 21,2 C 22,2 C 20,0 C 64 % 1010,9 hPa 0,0 l/m 2 min 0 min 307 W/m 13,5 km/h (3 Bft) 95,74 %
27.08.2018 16:12 21,3 C 21,7 C 20,0 C 63 % 1010,8 hPa 0,0 l/m 2 min 0 min 362 W/m 9,0 km/h (2 Bft) 93,88 %
27.08.2018 16:14 21,3 C 22,2 C 20,0 C 63 % 1010,8 hPa 0,0 l/m 2 min 0 min 332 W/m 11,3 km/h (2 Bft) 89,58 %
27.08.2018 16:16 21,3 C 21,7 C 20,0 C 63 % 1010,8 hPa 0,0 l/m 0 min 0 min 279 W/m 11,3 km/h (2 Bft) 95,65 %
27.08.2018 16:18 21,4 C 21,7 C 20,0 C 63 % 1010,7 hPa 0,0 l/m 0 min 0 min 239 W/m 6,8 km/h (2 Bft) 95,74 %
27.08.2018 16:20 21,3 C 21,1 C 20,0 C 63 % 1010,8 hPa 0,0 l/m 0 min 0 min 238 W/m 18,0 km/h (3 Bft) 95,74 %
27.08.2018 16:22 21,3 C 20,6 C 19,4 C 63 % 1010,8 hPa 0,0 l/m 0 min 0 min 239 W/m 13,5 km/h (3 Bft) 95,74 %
27.08.2018 16:24 21,3 C 20,6 C 19,4 C 63 % 1010,9 hPa 0,0 l/m 0 min 0 min 243 W/m 11,3 km/h (2 Bft) 95,74 %
27.08.2018 16:26 21,3 C 20,6 C 19,4 C 63 % 1011,1 hPa 0,0 l/m 0 min 0 min 234 W/m 13,5 km/h (3 Bft) 95,74 %
27.08.2018 16:28 21,2 C 20,6 C 19,4 C 63 % 1010,9 hPa 0,0 l/m 0 min 0 min 220 W/m 13,5 km/h (3 Bft) 95,12 %
27.08.2018 16:30 21,2 C 20,6 C 19,4 C 64 % 1010,9 hPa 0,0 l/m 0 min 0 min 214 W/m 11,3 km/h (2 Bft) 95,74 %
27.08.2018 16:32 21,1 C 20,6 C 19,4 C 64 % 1011,0 hPa 0,0 l/m 0 min 0 min 216 W/m 9,0 km/h (2 Bft) 93,75 %
27.08.2018 16:34 21,1 C 20,6 C 19,4 C 65 % 1011,1 hPa 0,0 l/m 0 min 0 min 212 W/m 6,8 km/h (2 Bft) 97,92 %
27.08.2018 16:36 21,1 C 20,6 C 19,4 C 65 % 1011,1 hPa 0,0 l/m 0 min 0 min 206 W/m 9,0 km/h (2 Bft) 97,87 %
27.08.2018 16:38 21,1 C 20,6 C 19,4 C 65 % 1011,1 hPa 0,0 l/m 0 min 0 min 208 W/m 11,3 km/h (2 Bft) 97,92 %
27.08.2018 16:40 21,0 C 20,6 C 19,4 C 65 % 1011,1 hPa 0,0 l/m 0 min 0 min 215 W/m 6,8 km/h (2 Bft) 95,83 %
27.08.2018 16:42 21,0 C 20,6 C 19,4 C 66 % 1011,1 hPa 0,0 l/m 0 min 0 min 214 W/m 9,0 km/h (2 Bft) 95,74 %
27.08.2018 16:44 21,0 C 20,6 C 19,4 C 65 % 1011,1 hPa 0,0 l/m 0 min 0 min 219 W/m 11,3 km/h (2 Bft) 97,87 %
27.08.2018 16:46 20,9 C 20,6 C 19,4 C 65 % 1011,1 hPa 0,0 l/m 0 min 0 min 233 W/m 9,0 km/h (2 Bft) 93,62 %
27.08.2018 16:48 20,9 C 20,6 C 19,4 C 65 % 1011,2 hPa 0,0 l/m 0 min 0 min 239 W/m 11,3 km/h (2 Bft) 95,74 %
27.08.2018 16:50 20,9 C 20,6 C 19,4 C 65 % 1011,2 hPa 0,0 l/m 0 min 0 min 254 W/m 6,8 km/h (2 Bft) 95,74 %
27.08.2018 16:52 20,9 C 20,6 C 19,4 C 66 % 1011,3 hPa 0,0 l/m 2 min 0 min 269 W/m 6,8 km/h (2 Bft) 97,56 %
27.08.2018 16:54 20,9 C 20,6 C 19,4 C 65 % 1011,2 hPa 0,0 l/m 2 min 0 min 285 W/m 11,3 km/h (2 Bft) 97,87 %
27.08.2018 16:56 20,9 C 21,1 C 19,4 C 65 % 1011,2 hPa 0,0 l/m 2 min 0 min 264 W/m 11,3 km/h (2 Bft) 97,87 %
27.08.2018 16:58 20,9 C 20,6 C 19,4 C 65 % 1011,3 hPa 0,0 l/m 0 min 0 min 216 W/m 15,8 km/h (3 Bft) 97,87 %
27.08.2018 17:00 20,8 C 20,6 C 19,4 C 64 % 1011,4 hPa 0,0 l/m 0 min 0 min 187 W/m 15,8 km/h (3 Bft) 98,00 %
27.08.2018 17:02 20,8 C 20,6 C 19,4 C 65 % 1011,4 hPa 0,0 l/m 0 min 0 min 169 W/m 9,0 km/h (2 Bft) 100,00 %
27.08.2018 17:04 20,8 C 20,0 C 19,4 C 65 % 1011,4 hPa 0,0 l/m 0 min 0 min 163 W/m 11,3 km/h (2 Bft) 97,83 %
27.08.2018 17:06 20,8 C 20,0 C 19,4 C 65 % 1011,5 hPa 0,0 l/m 0 min 0 min 161 W/m 13,5 km/h (3 Bft) 100,00 %
27.08.2018 17:08 20,8 C 20,0 C 19,4 C 65 % 1011,5 hPa 0,0 l/m 0 min 0 min 161 W/m 9,0 km/h (2 Bft) 97,87 %
27.08.2018 17:10 20,7 C 20,0 C 18,9 C 65 % 1011,5 hPa 0,0 l/m 0 min 0 min 168 W/m 11,3 km/h (2 Bft) 100,00 %
27.08.2018 17:12 20,7 C 20,0 C 18,9 C 66 % 1011,5 hPa 0,0 l/m 0 min 0 min 168 W/m 9,0 km/h (2 Bft) 100,00 %
27.08.2018 17:14 20,6 C 20,0 C 18,9 C 66 % 1011,5 hPa 0,0 l/m 0 min 0 min 160 W/m 6,8 km/h (2 Bft) 100,00 %
27.08.2018 17:16 20,6 C 20,0 C 18,9 C 67 % 1011,5 hPa 0,0 l/m 0 min 0 min 146 W/m 11,3 km/h (2 Bft) 100,00 %
27.08.2018 17:18 20,6 C 20,0 C 18,9 C 67 % 1011,5 hPa 0,0 l/m 0 min 0 min 139 W/m 9,0 km/h (2 Bft) 100,00 %
27.08.2018 17:20 20,6 C 20,0 C 18,9 C 67 % 1011,5 hPa 0,0 l/m 0 min 0 min 156 W/m 9,0 km/h (2 Bft) 100,00 %
27.08.2018 17:22 20,6 C 20,0 C 18,9 C 67 % 1011,7 hPa 0,0 l/m 0 min 0 min 185 W/m 9,0 km/h (2 Bft) 100,00 %
27.08.2018 17:24 20,5 C 20,0 C 18,9 C 66 % 1011,8 hPa 0,0 l/m 0 min 0 min 218 W/m 9,0 km/h (2 Bft) 100,00 %
27.08.2018 17:26 20,5 C 20,0 C 18,9 C 67 % 1011,6 hPa 0,0 l/m 2 min 0 min 244 W/m 6,8 km/h (2 Bft) 100,00 %
27.08.2018 17:28 20,5 C 20,6 C 18,9 C 67 % 1011,7 hPa 0,0 l/m 2 min 0 min 276 W/m 15,8 km/h (3 Bft) 100,00 %
27.08.2018 17:30 20,5 C 20,6 C 18,9 C 67 % 1011,7 hPa 0,0 l/m 2 min 0 min 273 W/m 13,5 km/h (3 Bft) 100,00 %
27.08.2018 17:32 20,5 C 20,6 C 19,4 C 66 % 1011,8 hPa 0,0 l/m 2 min 0 min 277 W/m 15,8 km/h (3 Bft) 97,87 %
27.08.2018 17:34 20,4 C 20,6 C 18,9 C 66 % 1011,7 hPa 0,0 l/m 2 min 0 min 232 W/m 6,8 km/h (2 Bft) 100,00 %
27.08.2018 17:36 20,5 C 20,6 C 19,4 C 66 % 1011,7 hPa 0,0 l/m 2 min 0 min 402 W/m 9,0 km/h (2 Bft) 100,00 %
27.08.2018 17:38 20,5 C 20,6 C 19,4 C 67 % 1011,7 hPa 0,0 l/m 0 min 0 min 170 W/m 11,3 km/h (2 Bft) 100,00 %
27.08.2018 17:40 20,5 C 20,0 C 18,9 C 67 % 1011,7 hPa 0,0 l/m 0 min 0 min 170 W/m 9,0 km/h (2 Bft) 100,00 %
27.08.2018 17:42 20,4 C 20,0 C 18,9 C 66 % 1011,7 hPa 0,0 l/m 0 min 0 min 204 W/m 15,8 km/h (3 Bft) 100,00 %
27.08.2018 17:44 20,4 C 20,0 C 18,9 C 67 % 1011,7 hPa 0,0 l/m 0 min 0 min 195 W/m 9,0 km/h (2 Bft) 100,00 %
27.08.2018 17:46 20,4 C 20,0 C 18,9 C 68 % 1011,8 hPa 0,0 l/m 2 min 0 min 207 W/m 9,0 km/h (2 Bft) 100,00 %
27.08.2018 17:48 20,4 C 20,0 C 18,9 C 68 % 1011,8 hPa 0,0 l/m 0 min 0 min 193 W/m 9,0 km/h (2 Bft) 100,00 %
27.08.2018 17:50 20,4 C 20,0 C 18,9 C 68 % 1011,8 hPa 0,0 l/m 0 min 0 min 168 W/m 9,0 km/h (2 Bft) 100,00 %
27.08.2018 17:52 20,4 C 20,0 C 18,9 C 68 % 1011,8 hPa 0,0 l/m 0 min 0 min 136 W/m 11,3 km/h (2 Bft) 100,00 %
27.08.2018 17:54 20,4 C 20,0 C 18,9 C 68 % 1011,8 hPa 0,0 l/m 0 min 0 min 129 W/m 15,8 km/h (3 Bft) 100,00 %
27.08.2018 17:56 20,4 C 20,0 C 18,9 C 68 % 1011,8 hPa 0,0 l/m 0 min 0 min 123 W/m 6,8 km/h (2 Bft) 100,00 %
27.08.2018 17:58 20,4 C 20,0 C 18,9 C 68 % 1011,9 hPa 0,0 l/m 0 min 0 min 115 W/m 6,8 km/h (2 Bft) 97,87 %
27.08.2018 18:00 20,4 C 19,4 C 18,9 C 68 % 1011,8 hPa 0,0 l/m 0 min 0 min 104 W/m 4,5 km/h (1 Bft) 100,00 %
27.08.2018 18:02 20,4 C 19,4 C 18,9 C 68 % 1011,9 hPa 0,0 l/m 0 min 0 min 96 W/m 6,8 km/h (2 Bft) 100,00 %
27.08.2018 18:04 20,4 C 19,4 C 18,9 C 69 % 1012,0 hPa 0,0 l/m 0 min 0 min 87 W/m 6,8 km/h (2 Bft) 100,00 %
27.08.2018 18:06 20,3 C 19,4 C 18,9 C 68 % 1012,0 hPa 0,0 l/m 0 min 0 min 89 W/m 11,3 km/h (2 Bft) 100,00 %
27.08.2018 18:08 20,3 C 19,4 C 18,9 C 68 % 1012,0 hPa 0,0 l/m 0 min 0 min 101 W/m 9,0 km/h (2 Bft) 100,00 %
27.08.2018 18:10 20,3 C 19,4 C 18,9 C 69 % 1012,0 hPa 0,0 l/m 0 min 0 min 113 W/m 4,5 km/h (1 Bft) 100,00 %
27.08.2018 18:12 20,2 C 19,4 C 18,9 C 69 % 1012,0 hPa 0,0 l/m 0 min 0 min 131 W/m 6,8 km/h (2 Bft) 100,00 %
27.08.2018 18:14 20,2 C 19,4 C 18,9 C 69 % 1012,0 hPa 0,0 l/m 0 min 0 min 126 W/m 6,8 km/h (2 Bft) 100,00 %
27.08.2018 18:16 20,2 C 19,4 C 18,9 C 69 % 1012,0 hPa 0,0 l/m 0 min 0 min 106 W/m 6,8 km/h (2 Bft) 100,00 %
27.08.2018 18:18 20,2 C 19,4 C 18,9 C 69 % 1012,1 hPa 0,0 l/m 0 min 0 min 86 W/m 6,8 km/h (2 Bft) 97,92 %
27.08.2018 18:20 20,2 C 19,4 C 18,3 C 70 % 1012,0 hPa 0,0 l/m 0 min 0 min 75 W/m 9,0 km/h (2 Bft) 100,00 %
27.08.2018 18:22 20,2 C 19,4 C 18,3 C 70 % 1012,0 hPa 0,0 l/m 0 min 0 min 70 W/m 6,8 km/h (2 Bft) 97,92 %
27.08.2018 18:24 20,1 C 18,9 C 18,3 C 69 % 1012,0 hPa 0,0 l/m 0 min 0 min 54 W/m 4,5 km/h (1 Bft) 97,87 %
27.08.2018 18:26 20,1 C 18,9 C 18,3 C 70 % 1012,1 hPa 0,0 l/m 0 min 0 min 41 W/m 6,8 km/h (2 Bft) 95,74 %
27.08.2018 18:28 20,1 C 18,9 C 18,3 C 69 % 1012,0 hPa 0,0 l/m 0 min 0 min 38 W/m 4,5 km/h (1 Bft) 95,74 %
27.08.2018 18:30 20,1 C 18,9 C 18,3 C 69 % 1012,1 hPa 0,0 l/m 0 min 0 min 33 W/m 9,0 km/h (2 Bft) 95,74 %
27.08.2018 18:32 20,0 C 18,9 C 18,3 C 70 % 1012,1 hPa 0,0 l/m 0 min 0 min 26 W/m 6,8 km/h (2 Bft) 93,62 %
27.08.2018 18:34 20,0 C 18,9 C 18,3 C 70 % 1012,1 hPa 0,0 l/m 0 min 0 min 27 W/m 11,3 km/h (2 Bft) 92,68 %
27.08.2018 18:36 19,9 C 18,9 C 18,3 C 70 % 1012,1 hPa 0,0 l/m 0 min 0 min 34 W/m 13,5 km/h (3 Bft) 93,75 %
27.08.2018 18:38 19,9 C 18,9 C 18,3 C 70 % 1012,2 hPa 0,0 l/m 0 min 0 min 39 W/m 15,8 km/h (3 Bft) 95,74 %
27.08.2018 18:40 19,8 C 18,9 C 18,3 C 71 % 1012,2 hPa 0,0 l/m 0 min 0 min 36 W/m 9,0 km/h (2 Bft) 95,74 %
27.08.2018 18:42 19,8 C 18,9 C 17,8 C 71 % 1012,3 hPa 0,0 l/m 0 min 0 min 37 W/m 6,8 km/h (2 Bft) 95,74 %
27.08.2018 18:44 19,7 C 18,9 C 17,8 C 71 % 1012,4 hPa 0,0 l/m 0 min 0 min 44 W/m 6,8 km/h (2 Bft) 95,83 %
27.08.2018 18:46 19,7 C 18,9 C 17,8 C 71 % 1012,3 hPa 0,0 l/m 0 min 0 min 48 W/m 6,8 km/h (2 Bft) 95,83 %
27.08.2018 18:48 19,7 C 18,9 C 17,8 C 71 % 1012,4 hPa 0,0 l/m 0 min 0 min 47 W/m 6,8 km/h (2 Bft) 95,83 %
27.08.2018 18:50 19,7 C 18,9 C 17,8 C 71 % 1012,4 hPa 0,0 l/m 0 min 0 min 47 W/m 6,8 km/h (2 Bft) 93,48 %
27.08.2018 18:52 19,6 C 18,9 C 17,8 C 71 % 1012,4 hPa 0,0 l/m 0 min 0 min 55 W/m 4,5 km/h (1 Bft) 93,75 %
27.08.2018 18:54 19,6 C 18,9 C 17,8 C 71 % 1012,5 hPa 0,0 l/m 0 min 0 min 71 W/m 6,8 km/h (2 Bft) 95,74 %
27.08.2018 18:56 19,6 C 18,9 C 17,8 C 72 % 1012,4 hPa 0,0 l/m 0 min 0 min 71 W/m 4,5 km/h (1 Bft) 95,74 %
27.08.2018 18:58 19,6 C 18,9 C 17,8 C 72 % 1012,4 hPa 0,0 l/m 0 min 0 min 67 W/m 4,5 km/h (1 Bft) 93,62 %
27.08.2018 19:00 19,5 C 18,9 C 17,8 C 72 % 1012,4 hPa 0,0 l/m 0 min 0 min 61 W/m 9,0 km/h (2 Bft) 92,86 %
27.08.2018 19:02 19,5 C 18,9 C 17,8 C 72 % 1012,5 hPa 0,0 l/m 0 min 0 min 51 W/m 13,5 km/h (3 Bft) 94,00 %
27.08.2018 19:04 19,4 C 18,9 C 17,8 C 72 % 1012,5 hPa 0,0 l/m 0 min 0 min 46 W/m 6,8 km/h (2 Bft) 93,75 %
27.08.2018 19:06 19,4 C 18,9 C 17,8 C 72 % 1012,5 hPa 0,0 l/m 0 min 0 min 38 W/m 4,5 km/h (1 Bft) 95,74 %
27.08.2018 19:08 19,4 C 18,3 C 17,8 C 72 % 1012,6 hPa 0,0 l/m 0 min 0 min 30 W/m 4,5 km/h (1 Bft) 93,62 %
27.08.2018 19:10 19,4 C 18,3 C 17,8 C 72 % 1012,6 hPa 0,0 l/m 0 min 0 min 24 W/m 6,8 km/h (2 Bft) 97,62 %
27.08.2018 19:12 19,4 C 18,3 C 17,8 C 72 % 1012,6 hPa 0,0 l/m 0 min 0 min 20 W/m 9,0 km/h (2 Bft) 93,88 %
27.08.2018 19:14 19,3 C 18,3 C 17,8 C 72 % 1012,8 hPa 0,0 l/m 0 min 0 min 16 W/m 15,8 km/h (3 Bft) 97,92 %
27.08.2018 19:16 19,3 C 18,3 C 17,8 C 72 % 1012,7 hPa 0,0 l/m 0 min 0 min 12 W/m 11,3 km/h (2 Bft) 97,92 %
27.08.2018 19:18 19,2 C 17,8 C 17,2 C 72 % 1012,8 hPa 0,0 l/m 0 min 0 min 11 W/m 15,8 km/h (3 Bft) 97,87 %
27.08.2018 19:20 19,2 C 17,8 C 17,2 C 72 % 1012,8 hPa 0,0 l/m 0 min 0 min 11 W/m 11,3 km/h (2 Bft) 95,74 %
27.08.2018 19:22 19,1 C 17,8 C 17,2 C 72 % 1012,9 hPa 0,0 l/m 0 min 0 min 11 W/m 11,3 km/h (2 Bft) 95,74 %
27.08.2018 19:24 19,1 C 17,8 C 17,2 C 72 % 1012,9 hPa 0,0 l/m 0 min 0 min 11 W/m 9,0 km/h (2 Bft) 97,83 %
27.08.2018 19:26 18,9 C 17,8 C 17,2 C 72 % 1012,8 hPa 0,0 l/m 0 min 0 min 16 W/m 13,5 km/h (3 Bft) 97,62 %
27.08.2018 19:28 18,9 C 17,8 C 17,2 C 73 % 1012,9 hPa 0,0 l/m 0 min 0 min 22 W/m 13,5 km/h (3 Bft) 97,87 %
27.08.2018 19:30 18,8 C 17,8 C 17,2 C 73 % 1012,9 hPa 0,0 l/m 0 min 0 min 25 W/m 18,0 km/h (3 Bft) 93,75 %
27.08.2018 19:32 18,8 C 17,8 C 17,2 C 73 % 1012,9 hPa 0,0 l/m 0 min 0 min 26 W/m 9,0 km/h (2 Bft) 95,92 %
27.08.2018 19:34 18,7 C 17,8 C 17,2 C 73 % 1013,0 hPa 0,0 l/m 0 min 0 min 29 W/m 9,0 km/h (2 Bft) 97,92 %
27.08.2018 19:36 18,7 C 17,8 C 17,2 C 74 % 1012,9 hPa 0,0 l/m 0 min 0 min 31 W/m 9,0 km/h (2 Bft) 97,87 %
27.08.2018 19:38 18,7 C 17,8 C 17,2 C 74 % 1013,0 hPa 0,0 l/m 0 min 0 min 29 W/m 6,8 km/h (2 Bft) 95,74 %
27.08.2018 19:40 18,6 C 17,8 C 17,2 C 74 % 1013,1 hPa 0,0 l/m 0 min 0 min 21 W/m 6,8 km/h (2 Bft) 97,87 %
27.08.2018 19:42 18,6 C 17,8 C 17,2 C 74 % 1013,1 hPa 0,0 l/m 0 min 0 min 15 W/m 4,5 km/h (1 Bft) 95,74 %
27.08.2018 19:44 18,6 C 17,2 C 17,2 C 74 % 1013,1 hPa 0,0 l/m 0 min 0 min 12 W/m 4,5 km/h (1 Bft) 97,87 %
27.08.2018 19:46 18,6 C 17,2 C 17,2 C 74 % 1013,1 hPa 0,0 l/m 0 min 0 min 13 W/m 4,5 km/h (1 Bft) 97,87 %
27.08.2018 19:48 18,5 C 17,2 C 17,2 C 74 % 1013,1 hPa 0,0 l/m 0 min 0 min 17 W/m 4,5 km/h (1 Bft) 95,24 %
27.08.2018 19:50 18,5 C 17,2 C 17,2 C 74 % 1013,2 hPa 0,0 l/m 0 min 0 min 22 W/m 4,5 km/h (1 Bft) 97,87 %
27.08.2018 19:52 18,5 C 17,2 C 17,2 C 75 % 1013,2 hPa 0,0 l/m 0 min 0 min 24 W/m 6,8 km/h (2 Bft) 97,92 %
27.08.2018 19:54 18,4 C 17,2 C 17,2 C 75 % 1013,2 hPa 0,0 l/m 0 min 0 min 22 W/m 9,0 km/h (2 Bft) 97,87 %
27.08.2018 19:56 18,4 C 17,2 C 17,2 C 75 % 1013,3 hPa 0,0 l/m 0 min 0 min 20 W/m 6,8 km/h (2 Bft) 97,92 %
27.08.2018 19:58 18,4 C 17,2 C 17,2 C 75 % 1013,4 hPa 0,0 l/m 0 min 0 min 19 W/m 6,8 km/h (2 Bft) 97,92 %
27.08.2018 20:00 18,4 C 17,2 C 17,2 C 75 % 1013,3 hPa 0,0 l/m 0 min 0 min 21 W/m 2,3 km/h (1 Bft) 95,74 %
27.08.2018 20:02 18,4 C 17,2 C 17,2 C 75 % 1013,4 hPa 0,0 l/m 0 min 0 min 25 W/m 6,8 km/h (2 Bft) 97,87 %
27.08.2018 20:04 18,3 C 17,2 C 17,2 C 75 % 1013,4 hPa 0,0 l/m 0 min 0 min 26 W/m 4,5 km/h (1 Bft) 97,87 %
27.08.2018 20:06 18,3 C 17,2 C 17,2 C 75 % 1013,4 hPa 0,0 l/m 0 min 0 min 24 W/m 4,5 km/h (1 Bft) 100,00 %
27.08.2018 20:08 18,3 C 17,2 C 16,7 C 75 % 1013,4 hPa 0,0 l/m 0 min 0 min 22 W/m 4,5 km/h (1 Bft) 97,92 %
27.08.2018 20:10 18,3 C 17,2 C 16,7 C 75 % 1013,6 hPa 0,0 l/m 0 min 0 min 20 W/m 4,5 km/h (1 Bft) 100,00 %
27.08.2018 20:12 18,3 C 17,2 C 16,7 C 75 % 1013,7 hPa 0,0 l/m 0 min 0 min 18 W/m 6,8 km/h (2 Bft) 100,00 %
27.08.2018 20:14 18,2 C 17,2 C 16,7 C 75 % 1013,6 hPa 0,0 l/m 0 min 0 min 18 W/m 2,3 km/h (1 Bft) 100,00 %
27.08.2018 20:16 18,2 C 17,2 C 16,7 C 76 % 1013,7 hPa 0,0 l/m 0 min 0 min 16 W/m 6,8 km/h (2 Bft) 97,87 %
27.08.2018 20:18 18,2 C 17,2 C 16,7 C 76 % 1013,7 hPa 0,0 l/m 0 min 0 min 13 W/m 4,5 km/h (1 Bft) 100,00 %
27.08.2018 20:20 18,2 C 16,7 C 16,7 C 76 % 1013,8 hPa 0,0 l/m 0 min 0 min 12 W/m 4,5 km/h (1 Bft) 100,00 %
27.08.2018 20:22 18,2 C 16,7 C 16,7 C 76 % 1013,7 hPa 0,0 l/m 0 min 0 min 10 W/m 4,5 km/h (1 Bft) 100,00 %
27.08.2018 20:24 18,1 C 16,7 C 16,7 C 76 % 1013,7 hPa 0,0 l/m 0 min 0 min 8 W/m 4,5 km/h (1 Bft) 100,00 %
27.08.2018 20:26 18,1 C 16,7 C 16,7 C 76 % 1013,7 hPa 0,0 l/m 0 min 0 min 7 W/m 4,5 km/h (1 Bft) 100,00 %
27.08.2018 20:28 18,1 C 16,7 C 16,7 C 76 % 1013,7 hPa 0,0 l/m 0 min 0 min 5 W/m 2,3 km/h (1 Bft) 100,00 %
27.08.2018 20:30 18,1 C 16,7 C 16,7 C 76 % 1013,8 hPa 0,0 l/m 0 min 0 min 5 W/m 9,0 km/h (2 Bft) 100,00 %
27.08.2018 20:32 18,0 C 16,7 C 16,7 C 76 % 1013,9 hPa 0,0 l/m 0 min 0 min 5 W/m 6,8 km/h (2 Bft) 97,87 %
27.08.2018 20:34 18,0 C 16,7 C 16,7 C 76 % 1013,8 hPa 0,0 l/m 0 min 0 min 2 W/m 2,3 km/h (1 Bft) 100,00 %
27.08.2018 20:36 18,0 C 16,7 C 16,7 C 76 % 1013,9 hPa 0,0 l/m 0 min 0 min 0 W/m 4,5 km/h (1 Bft) 100,00 %
27.08.2018 20:38 17,9 C 16,7 C 16,7 C 76 % 1013,9 hPa 0,0 l/m 0 min 0 min 0 W/m 2,3 km/h (1 Bft) 100,00 %
27.08.2018 20:40 17,9 C 16,7 C 16,7 C 76 % 1013,9 hPa 0,0 l/m 0 min 0 min 0 W/m 2,3 km/h (1 Bft) 100,00 %
27.08.2018 20:42 17,9 C 16,7 C 16,7 C 77 % 1013,9 hPa 0,0 l/m 0 min 0 min 0 W/m 4,5 km/h (1 Bft) 97,96 %
27.08.2018 20:44 17,9 C 16,7 C 16,7 C 77 % 1014,0 hPa 0,0 l/m 0 min 0 min 0 W/m 4,5 km/h (1 Bft) 97,87 %
27.08.2018 20:46 17,8 C 16,7 C 16,7 C 77 % 1014,0 hPa 0,0 l/m 0 min 0 min 0 W/m 4,5 km/h (1 Bft) 100,00 %
27.08.2018 20:48 17,8 C 16,7 C 16,7 C 77 % 1014,0 hPa 0,0 l/m 0 min 0 min 0 W/m 4,5 km/h (1 Bft) 100,00 %
27.08.2018 20:50 17,8 C 16,7 C 16,7 C 77 % 1014,2 hPa 0,0 l/m 0 min 0 min 0 W/m 6,8 km/h (2 Bft) 100,00 %
27.08.2018 20:52 17,8 C 16,7 C 16,1 C 77 % 1014,2 hPa 0,0 l/m 0 min 0 min 0 W/m 2,3 km/h (1 Bft) 100,00 %
27.08.2018 20:54 17,7 C 16,1 C 16,1 C 77 % 1014,2 hPa 0,0 l/m 0 min 0 min 0 W/m 2,3 km/h (1 Bft) 100,00 %
27.08.2018 20:56 17,7 C 16,1 C 16,1 C 77 % 1014,2 hPa 0,0 l/m 0 min 0 min 0 W/m 4,5 km/h (1 Bft) 100,00 %
27.08.2018 20:58 17,7 C 16,1 C 16,1 C 77 % 1014,3 hPa 0,0 l/m 0 min 0 min 0 W/m 4,5 km/h (1 Bft) 100,00 %
27.08.2018 21:00 17,6 C 16,1 C 16,1 C 78 % 1014,4 hPa 0,0 l/m 0 min 0 min 0 W/m 4,5 km/h (1 Bft) 100,00 %
27.08.2018 21:02 17,6 C 16,1 C 16,1 C 78 % 1014,4 hPa 0,0 l/m 0 min 0 min 0 W/m 2,3 km/h (1 Bft) 100,00 %
27.08.2018 21:04 17,6 C 16,1 C 16,1 C 78 % 1014,4 hPa 0,0 l/m 0 min 0 min 0 W/m 2,3 km/h (1 Bft) 100,00 %
27.08.2018 21:06 17,6 C 16,1 C 16,1 C 78 % 1014,4 hPa 0,0 l/m 0 min 0 min 0 W/m 2,3 km/h (1 Bft) 100,00 %
27.08.2018 21:08 17,5 C 15,6 C 16,1 C 78 % 1014,3 hPa 0,0 l/m 0 min 0 min 0 W/m 0,0 km/h (0 Bft) 100,00 %
27.08.2018 21:10 17,4 C 15,6 C 15,6 C 78 % 1014,4 hPa 0,0 l/m 0 min 0 min 0 W/m 2,3 km/h (1 Bft) 97,83 %
27.08.2018 21:12 17,4 C 15,6 C 15,6 C 79 % 1014,4 hPa 0,0 l/m 0 min 0 min 0 W/m 2,3 km/h (1 Bft) 97,87 %
27.08.2018 21:14 17,4 C 15,6 C 15,6 C 79 % 1014,4 hPa 0,0 l/m 0 min 0 min 0 W/m 2,3 km/h (1 Bft) 97,56 %
27.08.2018 21:16 17,3 C 15,6 C 15,6 C 79 % 1014,4 hPa 0,0 l/m 0 min 0 min 0 W/m 2,3 km/h (1 Bft) 97,92 %
27.08.2018 21:18 17,3 C 15,6 C 15,6 C 79 % 1014,4 hPa 0,0 l/m 0 min 0 min 0 W/m 2,3 km/h (1 Bft) 97,92 %
27.08.2018 21:20 17,3 C 15,6 C 15,6 C 79 % 1014,4 hPa 0,0 l/m 0 min 0 min 0 W/m 2,3 km/h (1 Bft) 97,92 %
27.08.2018 21:22 17,2 C 15,0 C 15,6 C 79 % 1014,5 hPa 0,0 l/m 0 min 0 min 0 W/m 0,0 km/h (0 Bft) 93,75 %
27.08.2018 21:24 17,2 C 15,0 C 15,0 C 79 % 1014,5 hPa 0,0 l/m 0 min 0 min 0 W/m 0,0 km/h (0 Bft) 97,87 %
27.08.2018 21:26 17,2 C 15,0 C 15,0 C 79 % 1014,5 hPa 0,0 l/m 0 min 0 min 0 W/m 0,0 km/h (0 Bft) 95,83 %
27.08.2018 21:28 17,2 C 15,0 C 15,0 C 79 % 1014,5 hPa 0,0 l/m 0 min 0 min 0 W/m 2,3 km/h (1 Bft) 95,83 %
27.08.2018 21:30 17,1 C 15,0 C 15,0 C 79 % 1014,5 hPa 0,0 l/m 0 min 0 min 0 W/m 0,0 km/h (0 Bft) 97,87 %
27.08.2018 21:32 17,1 C 15,0 C 15,0 C 79 % 1014,6 hPa 0,0 l/m 0 min 0 min 0 W/m 2,3 km/h (1 Bft) 97,83 %
27.08.2018 21:34 17,0 C 15,0 C 15,0 C 79 % 1014,5 hPa 0,0 l/m 0 min 0 min 0 W/m 2,3 km/h (1 Bft) 97,87 %
27.08.2018 21:36 17,0 C 15,0 C 15,0 C 79 % 1014,6 hPa 0,0 l/m 0 min 0 min 0 W/m 2,3 km/h (1 Bft) 97,92 %
27.08.2018 21:38 16,9 C 15,0 C 15,0 C 79 % 1014,5 hPa 0,0 l/m 0 min 0 min 0 W/m 4,5 km/h (1 Bft) 97,87 %
27.08.2018 21:40 16,9 C 15,0 C 15,0 C 80 % 1014,5 hPa 0,0 l/m 0 min 0 min 0 W/m 2,3 km/h (1 Bft) 97,87 %
27.08.2018 21:42 16,9 C 15,0 C 15,0 C 80 % 1014,6 hPa 0,0 l/m 0 min 0 min 0 W/m 4,5 km/h (1 Bft) 97,87 %
27.08.2018 21:44 16,8 C 15,0 C 15,6 C 79 % 1014,6 hPa 0,0 l/m 0 min 0 min 0 W/m 2,3 km/h (1 Bft) 95,65 %
27.08.2018 21:46 16,8 C 15,0 C 15,6 C 79 % 1014,6 hPa 0,0 l/m 0 min 0 min 0 W/m 2,3 km/h (1 Bft) 97,62 %
27.08.2018 21:48 16,7 C 15,0 C 15,6 C 80 % 1014,6 hPa 0,0 l/m 0 min 0 min 0 W/m 2,3 km/h (1 Bft) 95,74 %
27.08.2018 21:50 16,7 C 15,0 C 15,6 C 80 % 1014,6 hPa 0,0 l/m 0 min 0 min 0 W/m 2,3 km/h (1 Bft) 95,83 %
27.08.2018 21:52 16,7 C 15,0 C 15,0 C 80 % 1014,6 hPa 0,0 l/m 0 min 0 min 0 W/m 0,0 km/h (0 Bft) 95,83 %
27.08.2018 21:54 16,6 C 15,0 C 15,0 C 80 % 1014,7 hPa 0,0 l/m 0 min 0 min 0 W/m 0,0 km/h (0 Bft) 95,83 %
27.08.2018 21:56 16,6 C 15,0 C 15,0 C 80 % 1014,8 hPa 0,0 l/m 0 min 0 min 0 W/m 0,0 km/h (0 Bft) 97,92 %
27.08.2018 21:58 16,6 C 15,0 C 15,0 C 81 % 1014,8 hPa 0,0 l/m 0 min 0 min 0 W/m 0,0 km/h (0 Bft) 95,74 %
27.08.2018 22:00 16,6 C 15,0 C 15,0 C 81 % 1014,8 hPa 0,0 l/m 0 min 0 min 0 W/m 0,0 km/h (0 Bft) 97,87 %
27.08.2018 22:02 16,5 C 15,0 C 15,0 C 81 % 1014,8 hPa 0,0 l/m 0 min 0 min 0 W/m 0,0 km/h (0 Bft) 95,12 %
27.08.2018 22:04 16,4 C 15,0 C 15,0 C 81 % 1014,8 hPa 0,0 l/m 0 min 0 min 0 W/m 0,0 km/h (0 Bft) 93,62 %
27.08.2018 22:06 16,4 C 15,0 C 15,0 C 81 % 1014,9 hPa 0,0 l/m 0 min 0 min 0 W/m 0,0 km/h (0 Bft) 96,23 %
27.08.2018 22:08 16,4 C 15,6 C 15,0 C 81 % 1014,9 hPa 0,0 l/m 0 min 0 min 0 W/m 0,0 km/h (0 Bft) 95,24 %
27.08.2018 22:10 16,3 C 15,6 C 15,6 C 80 % 1014,9 hPa 0,0 l/m 0 min 0 min 0 W/m 0,0 km/h (0 Bft) 94,29 %
27.08.2018 22:12 16,3 C 15,6 C 15,6 C 80 % 1015,0 hPa 0,0 l/m 0 min 0 min 0 W/m 2,3 km/h (1 Bft) 95,00 %
27.08.2018 22:14 16,3 C 15,6 C 15,6 C 80 % 1015,0 hPa 0,0 l/m 0 min 0 min 0 W/m 2,3 km/h (1 Bft) 94,44 %
27.08.2018 22:16 16,3 C 15,6 C 15,6 C 80 % 1015,0 hPa 0,0 l/m 0 min 0 min 0 W/m 0,0 km/h (0 Bft) 94,92 %
27.08.2018 22:18 16,3 C 15,6 C 15,6 C 80 % 1015,0 hPa 0,0 l/m 0 min 0 min 0 W/m 2,3 km/h (1 Bft) 94,29 %
27.08.2018 22:20 16,3 C 15,6 C 15,6 C 80 % 1015,0 hPa 0,0 l/m 0 min 0 min 0 W/m 4,5 km/h (1 Bft) 91,67 %
27.08.2018 22:22 16,3 C 15,6 C 15,6 C 80 % 1015,0 hPa 0,0 l/m 0 min 0 min 0 W/m 2,3 km/h (1 Bft) 95,65 %
27.08.2018 22:24 16,3 C 15,6 C 15,6 C 81 % 1015,0 hPa 0,0 l/m 0 min 0 min 0 W/m 0,0 km/h (0 Bft) 97,22 %
27.08.2018 22:26 16,3 C 15,6 C 15,6 C 81 % 1015,0 hPa 0,0 l/m 0 min 0 min 0 W/m 2,3 km/h (1 Bft) 95,83 %
27.08.2018 22:28 16,3 C 15,6 C 15,0 C 81 % 1015,1 hPa 0,0 l/m 0 min 0 min 0 W/m 2,3 km/h (1 Bft) 93,75 %
27.08.2018 22:30 16,2 C 15,6 C 15,0 C 81 % 1015,1 hPa 0,0 l/m 0 min 0 min 0 W/m 2,3 km/h (1 Bft) 95,74 %
27.08.2018 22:32 16,3 C 15,6 C 15,0 C 81 % 1015,1 hPa 0,0 l/m 0 min 0 min 0 W/m 2,3 km/h (1 Bft) 93,62 %
27.08.2018 22:34 16,2 C 15,6 C 15,0 C 81 % 1015,2 hPa 0,0 l/m 0 min 0 min 0 W/m 0,0 km/h (0 Bft) 95,65 %
27.08.2018 22:36 16,2 C 15,6 C 15,0 C 81 % 1015,1 hPa 0,0 l/m 0 min 0 min 0 W/m 0,0 km/h (0 Bft) 95,74 %
27.08.2018 22:38 16,2 C 15,6 C 15,0 C 81 % 1015,2 hPa 0,0 l/m 0 min 0 min 0 W/m 2,3 km/h (1 Bft) 95,74 %
27.08.2018 22:40 16,2 C 15,6 C 15,6 C 81 % 1015,2 hPa 0,0 l/m 0 min 0 min 0 W/m 0,0 km/h (0 Bft) 95,74 %
27.08.2018 22:42 16,2 C 15,6 C 15,6 C 81 % 1015,2 hPa 0,0 l/m 0 min 0 min 0 W/m 0,0 km/h (0 Bft) 95,24 %
27.08.2018 22:44 16,2 C 15,6 C 15,6 C 81 % 1015,3 hPa 0,0 l/m 0 min 0 min 0 W/m 0,0 km/h (0 Bft) 95,83 %
27.08.2018 22:46 16,2 C 15,6 C 15,6 C 81 % 1015,2 hPa 0,0 l/m 0 min 0 min 0 W/m 0,0 km/h (0 Bft) 91,67 %
27.08.2018 22:48 16,2 C 15,6 C 15,6 C 81 % 1015,2 hPa 0,0 l/m 0 min 0 min 0 W/m 0,0 km/h (0 Bft) 95,65 %
27.08.2018 22:50 16,2 C 15,6 C 15,6 C 81 % 1015,2 hPa 0,0 l/m 0 min 0 min 0 W/m 0,0 km/h (0 Bft) 93,33 %
27.08.2018 22:52 16,2 C 15,6 C 15,6 C 81 % 1015,2 hPa 0,0 l/m 0 min 0 min 0 W/m 0,0 km/h (0 Bft) 94,44 %
27.08.2018 22:54 16,2 C 15,6 C 15,6 C 81 % 1015,3 hPa 0,0 l/m 0 min 0 min 0 W/m 0,0 km/h (0 Bft) 95,83 %
27.08.2018 22:56 16,2 C 15,6 C 15,6 C 81 % 1015,3 hPa 0,0 l/m 0 min 0 min 0 W/m 0,0 km/h (0 Bft) 97,83 %
27.08.2018 22:58 16,2 C 15,6 C 15,6 C 81 % 1015,3 hPa 0,0 l/m 0 min 0 min 0 W/m 0,0 km/h (0 Bft) 97,87 %
27.08.2018 23:00 16,2 C 15,6 C 15,6 C 82 % 1015,4 hPa 0,0 l/m 0 min 0 min 0 W/m 0,0 km/h (0 Bft) 95,74 %
27.08.2018 23:02 16,2 C 15,6 C 15,6 C 82 % 1015,4 hPa 0,0 l/m 0 min 0 min 0 W/m 0,0 km/h (0 Bft) 95,24 %
27.08.2018 23:04 16,2 C 15,6 C 15,6 C 82 % 1015,4 hPa 0,0 l/m 0 min 0 min 0 W/m 0,0 km/h (0 Bft) 98,00 %
27.08.2018 23:06 16,2 C 15,6 C 15,6 C 81 % 1015,4 hPa 0,0 l/m 0 min 0 min 0 W/m 0,0 km/h (0 Bft) 97,92 %
27.08.2018 23:08 16,2 C 15,6 C 15,6 C 81 % 1015,4 hPa 0,0 l/m 0 min 0 min 0 W/m 0,0 km/h (0 Bft) 97,87 %
27.08.2018 23:10 16,2 C 15,6 C 15,6 C 82 % 1015,4 hPa 0,0 l/m 0 min 0 min 0 W/m 0,0 km/h (0 Bft) 97,87 %
27.08.2018 23:12 16,2 C 15,6 C 15,6 C 82 % 1015,4 hPa 0,0 l/m 0 min 0 min 0 W/m 0,0 km/h (0 Bft) 100,00 %
27.08.2018 23:14 16,2 C 15,6 C 15,6 C 82 % 1015,4 hPa 0,0 l/m 0 min 0 min 0 W/m 0,0 km/h (0 Bft) 95,74 %
27.08.2018 23:16 16,2 C 15,6 C 15,0 C 82 % 1015,4 hPa 0,0 l/m 0 min 0 min 0 W/m 0,0 km/h (0 Bft) 100,00 %
27.08.2018 23:18 16,2 C 15,6 C 15,0 C 82 % 1015,4 hPa 0,0 l/m 0 min 0 min 0 W/m 2,3 km/h (1 Bft) 97,87 %
27.08.2018 23:20 16,2 C 15,6 C 15,6 C 82 % 1015,5 hPa 0,0 l/m 0 min 0 min 0 W/m 0,0 km/h (0 Bft) 100,00 %
27.08.2018 23:22 16,2 C 15,6 C 15,0 C 82 % 1015,4 hPa 0,0 l/m 0 min 0 min 0 W/m 0,0 km/h (0 Bft) 98,11 %
27.08.2018 23:24 16,2 C 15,6 C 15,0 C 82 % 1015,4 hPa 0,0 l/m 0 min 0 min 0 W/m 0,0 km/h (0 Bft) 100,00 %
27.08.2018 23:26 16,2 C 15,6 C 15,0 C 82 % 1015,5 hPa 0,0 l/m 0 min 0 min 0 W/m 0,0 km/h (0 Bft) 100,00 %
27.08.2018 23:28 16,2 C 15,6 C 15,0 C 82 % 1015,5 hPa 0,0 l/m 0 min 0 min 0 W/m 0,0 km/h (0 Bft) 100,00 %
27.08.2018 23:30 16,2 C 15,6 C 15,0 C 82 % 1015,5 hPa 0,0 l/m 0 min 0 min 0 W/m 2,3 km/h (1 Bft) 100,00 %
27.08.2018 23:32 16,2 C 15,6 C 15,0 C 82 % 1015,5 hPa 0,0 l/m 0 min 0 min 0 W/m 2,3 km/h (1 Bft) 97,92 %
27.08.2018 23:34 16,2 C 15,6 C 15,6 C 82 % 1015,6 hPa 0,0 l/m 0 min 0 min 0 W/m 0,0 km/h (0 Bft) 100,00 %
27.08.2018 23:36 16,2 C 15,6 C 15,6 C 82 % 1015,6 hPa 0,0 l/m 0 min 0 min 0 W/m 0,0 km/h (0 Bft) 97,92 %
27.08.2018 23:38 16,2 C 15,6 C 15,6 C 82 % 1015,5 hPa 0,0 l/m 0 min 0 min 0 W/m 0,0 km/h (0 Bft) 100,00 %
27.08.2018 23:40 16,2 C 15,6 C 15,6 C 82 % 1015,5 hPa 0,0 l/m 0 min 0 min 0 W/m 2,3 km/h (1 Bft) 100,00 %
27.08.2018 23:42 16,2 C 15,6 C 15,6 C 82 % 1015,6 hPa 0,0 l/m 0 min 0 min 0 W/m 0,0 km/h (0 Bft) 97,87 %
27.08.2018 23:44 16,2 C 15,6 C 15,6 C 82 % 1015,6 hPa 0,0 l/m 0 min 0 min 0 W/m 0,0 km/h (0 Bft) 97,83 %
27.08.2018 23:46 16,2 C 15,6 C 15,6 C 82 % 1015,6 hPa 0,0 l/m 0 min 0 min 0 W/m 0,0 km/h (0 Bft) 100,00 %
27.08.2018 23:48 16,2 C 15,6 C 15,6 C 82 % 1015,6 hPa 0,0 l/m 0 min 0 min 0 W/m 0,0 km/h (0 Bft) 100,00 %
27.08.2018 23:50 16,2 C 15,6 C 15,6 C 82 % 1015,6 hPa 0,0 l/m 0 min 0 min 0 W/m 0,0 km/h (0 Bft) 100,00 %
27.08.2018 23:52 16,2 C 15,6 C 15,6 C 82 % 1015,6 hPa 0,0 l/m 0 min 0 min 0 W/m 0,0 km/h (0 Bft) 100,00 %
27.08.2018 23:54 16,2 C 15,6 C 15,6 C 82 % 1015,6 hPa 0,0 l/m 0 min 0 min 0 W/m 0,0 km/h (0 Bft) 100,00 %
27.08.2018 23:56 16,2 C 15,6 C 15,6 C 82 % 1015,6 hPa 0,0 l/m 0 min 0 min 0 W/m 2,3 km/h (1 Bft) 100,00 %
27.08.2018 23:58 16,2 C 15,6 C 15,6 C 82 % 1015,5 hPa 0,0 l/m 0 min 0 min 0 W/m 2,3 km/h (1 Bft) 100,00 %
_ Min-Zeit 05:40 00:52 04:22 14:36 05:42 - - - - 06:26 16:14
Minimum _ 13,1 C 11,7 C 11,7 C 62 % 1006,1 hPa - - - - 0,0 km/h (0 Bft) 89,58 %
_ Max-Zeit 14:40 12:34 13:36 08:06 23:34 05:24 11:12 04:05 14:08 14:12 00:02
Maximum _ 21,7 C 22,8 C 20,0 C 98 % 1015,6 hPa 0,4 l/m 2 min 5 min 793 W/m 24,8 km/h
NW (4 Bft)
100,00 %
Durchschnitt _ 17,1 C 16,3 C 15,8 C 81 % 1009,6 hPa #2,4 l/m #2:32 h #4:25 h 190 W/m 8,2 km/h (2 Bft) 97,52 %
© 2018 W. Hausmann